Wetterdaten: Dienstag, 10.04.2018
Datum Zeit Temp. Aussen Temp. o. S. +5cm Feuchte Auss BlattFeu 1 Luftdruck Regen Sonnenschein Regendauer Solar Windben Empfang
10.04.2018 00:00 14,2 C 13,9 C 11,1 C 86 % 0 lf 999,8 hPa 0,0 l/m 0 min 0 min 0 W/m 9,0 km/h (2 Bft) 97,87 %
10.04.2018 00:02 14,2 C 13,9 C 11,1 C 86 % 0 lf 999,8 hPa 0,0 l/m 0 min 0 min 0 W/m 6,8 km/h (2 Bft) 11,11 %
10.04.2018 00:04 14,2 C 13,9 C 11,1 C 86 % 0 lf 999,8 hPa 0,0 l/m 0 min 0 min 0 W/m 6,8 km/h (2 Bft) 50,00 %
10.04.2018 00:08 14,2 C 13,9 C 11,1 C 86 % 0 lf 999,8 hPa 0,0 l/m 0 min 0 min 0 W/m 9,0 km/h (2 Bft) 98,08 %
10.04.2018 00:10 14,2 C 13,3 C 11,1 C 86 % 0 lf 999,8 hPa 0,0 l/m 0 min 0 min 0 W/m 6,8 km/h (2 Bft) 95,65 %
10.04.2018 00:12 14,2 C 13,3 C 11,1 C 86 % 0 lf 999,9 hPa 0,0 l/m 0 min 0 min 0 W/m 9,0 km/h (2 Bft) 95,74 %
10.04.2018 00:14 14,2 C 13,3 C 10,6 C 86 % 0 lf 999,9 hPa 0,0 l/m 0 min 0 min 0 W/m 11,3 km/h (2 Bft) 97,87 %
10.04.2018 00:16 14,2 C 13,9 C 10,6 C 86 % 0 lf 999,9 hPa 0,0 l/m 0 min 0 min 0 W/m 11,3 km/h (2 Bft) 95,74 %
10.04.2018 00:18 14,2 C 13,9 C 11,1 C 86 % 0 lf 999,9 hPa 0,0 l/m 0 min 0 min 0 W/m 13,5 km/h (3 Bft) 95,74 %
10.04.2018 00:20 14,2 C 13,9 C 11,1 C 86 % 0 lf 999,9 hPa 0,0 l/m 0 min 0 min 0 W/m 13,5 km/h (3 Bft) 93,62 %
10.04.2018 00:22 14,2 C 13,9 C 11,7 C 86 % 0 lf 999,8 hPa 0,0 l/m 0 min 0 min 0 W/m 15,8 km/h (3 Bft) 95,65 %
10.04.2018 00:24 14,2 C 13,9 C 11,7 C 86 % 0 lf 999,9 hPa 0,0 l/m 0 min 0 min 0 W/m 13,5 km/h (3 Bft) 97,87 %
10.04.2018 00:26 14,2 C 13,9 C 11,7 C 86 % 0 lf 999,9 hPa 0,0 l/m 0 min 0 min 0 W/m 18,0 km/h (3 Bft) 93,62 %
10.04.2018 00:28 14,2 C 13,9 C 12,2 C 86 % 0 lf 999,9 hPa 0,0 l/m 0 min 0 min 0 W/m 18,0 km/h (3 Bft) 95,74 %
10.04.2018 00:30 14,2 C 14,4 C 12,2 C 86 % 0 lf 999,9 hPa 0,0 l/m 0 min 0 min 0 W/m 18,0 km/h (3 Bft) 93,62 %
10.04.2018 00:32 14,2 C 14,4 C 12,2 C 85 % 0 lf 999,9 hPa 0,0 l/m 0 min 0 min 0 W/m 13,5 km/h (3 Bft) 95,74 %
10.04.2018 00:34 14,2 C 14,4 C 12,2 C 85 % 0 lf 999,9 hPa 0,0 l/m 0 min 0 min 0 W/m 20,3 km/h (4 Bft) 91,30 %
10.04.2018 00:38 14,2 C 14,4 C 12,2 C 85 % 0 lf 999,9 hPa 0,0 l/m 0 min 0 min 0 W/m 20,3 km/h (4 Bft) 93,62 %
10.04.2018 00:40 14,2 C 14,4 C 12,2 C 85 % 0 lf 999,9 hPa 0,0 l/m 0 min 0 min 0 W/m 15,8 km/h (3 Bft) 95,74 %
10.04.2018 00:42 14,2 C 15,0 C 12,2 C 84 % 0 lf 999,9 hPa 0,0 l/m 0 min 0 min 0 W/m 20,3 km/h (4 Bft) 95,74 %
10.04.2018 00:44 14,3 C 15,0 C 12,8 C 84 % 0 lf 999,9 hPa 0,0 l/m 0 min 0 min 0 W/m 24,8 km/h (4 Bft) 93,62 %
10.04.2018 00:46 14,4 C 14,4 C 12,2 C 84 % 0 lf 999,9 hPa 0,0 l/m 0 min 0 min 0 W/m 15,8 km/h (3 Bft) 91,30 %
10.04.2018 00:48 14,4 C 14,4 C 12,8 C 83 % 0 lf 1000,0 hPa 0,0 l/m 0 min 0 min 0 W/m 15,8 km/h (3 Bft) 95,74 %
10.04.2018 00:50 14,5 C 14,4 C 12,8 C 83 % 0 lf 999,9 hPa 0,0 l/m 0 min 0 min 0 W/m 20,3 km/h (4 Bft) 95,74 %
10.04.2018 00:52 14,6 C 14,4 C 12,2 C 83 % 0 lf 1000,0 hPa 0,0 l/m 0 min 0 min 0 W/m 18,0 km/h (3 Bft) 93,62 %
10.04.2018 00:54 14,6 C 14,4 C 12,2 C 83 % 0 lf 999,9 hPa 0,0 l/m 0 min 0 min 0 W/m 13,5 km/h (3 Bft) 95,74 %
10.04.2018 00:56 14,6 C 14,4 C 12,2 C 82 % 0 lf 1000,0 hPa 0,0 l/m 0 min 0 min 0 W/m 18,0 km/h (3 Bft) 93,62 %
10.04.2018 00:58 14,7 C 14,4 C 12,2 C 82 % 0 lf 999,9 hPa 0,0 l/m 0 min 0 min 0 W/m 20,3 km/h (4 Bft) 95,65 %
10.04.2018 01:00 14,7 C 14,4 C 12,8 C 82 % 0 lf 999,9 hPa 0,0 l/m 0 min 0 min 0 W/m 20,3 km/h (4 Bft) 93,62 %
10.04.2018 01:02 14,7 C 14,4 C 12,2 C 82 % 0 lf 1000,0 hPa 0,0 l/m 0 min 0 min 0 W/m 11,3 km/h (2 Bft) 95,74 %
10.04.2018 01:04 14,7 C 14,4 C 12,2 C 82 % 0 lf 1000,0 hPa 0,0 l/m 0 min 0 min 0 W/m 18,0 km/h (3 Bft) 89,36 %
10.04.2018 01:08 14,8 C 14,4 C 12,2 C 82 % 0 lf 1000,0 hPa 0,0 l/m 0 min 0 min 0 W/m 18,0 km/h (3 Bft) 95,74 %
10.04.2018 01:10 14,8 C 14,4 C 12,2 C 82 % 0 lf 1000,0 hPa 0,0 l/m 0 min 0 min 0 W/m 18,0 km/h (3 Bft) 95,65 %
10.04.2018 01:12 14,8 C 14,4 C 12,2 C 82 % 0 lf 1000,0 hPa 0,0 l/m 0 min 0 min 0 W/m 18,0 km/h (3 Bft) 91,49 %
10.04.2018 01:14 14,8 C 14,4 C 12,2 C 82 % 0 lf 1000,0 hPa 0,0 l/m 0 min 0 min 0 W/m 13,5 km/h (3 Bft) 97,87 %
10.04.2018 01:16 14,8 C 13,9 C 12,2 C 81 % 0 lf 1000,0 hPa 0,0 l/m 0 min 0 min 0 W/m 18,0 km/h (3 Bft) 93,62 %
10.04.2018 01:18 14,7 C 13,9 C 12,2 C 81 % 0 lf 1000,0 hPa 0,0 l/m 0 min 0 min 0 W/m 15,8 km/h (3 Bft) 95,74 %
10.04.2018 01:20 14,7 C 13,9 C 12,2 C 81 % 0 lf 1000,1 hPa 0,0 l/m 0 min 0 min 0 W/m 24,8 km/h (4 Bft) 93,62 %
10.04.2018 01:22 14,7 C 13,9 C 12,2 C 81 % 0 lf 1000,0 hPa 0,0 l/m 0 min 0 min 0 W/m 22,5 km/h (4 Bft) 95,65 %
10.04.2018 01:24 14,7 C 13,9 C 12,2 C 81 % 0 lf 1000,0 hPa 0,0 l/m 0 min 0 min 0 W/m 18,0 km/h (3 Bft) 100,00 %
10.04.2018 01:26 14,7 C 13,9 C 12,2 C 81 % 0 lf 1000,1 hPa 0,0 l/m 0 min 0 min 0 W/m 13,5 km/h (3 Bft) 97,87 %
10.04.2018 01:28 14,7 C 13,9 C 11,7 C 81 % 0 lf 1000,1 hPa 0,0 l/m 0 min 0 min 0 W/m 11,3 km/h (2 Bft) 97,87 %
10.04.2018 01:30 14,7 C 13,9 C 11,7 C 81 % 0 lf 1000,1 hPa 0,0 l/m 0 min 0 min 0 W/m 11,3 km/h (2 Bft) 95,74 %
10.04.2018 01:32 14,6 C 13,9 C 11,7 C 81 % 0 lf 1000,0 hPa 0,0 l/m 0 min 0 min 0 W/m 15,8 km/h (3 Bft) 97,83 %
10.04.2018 01:34 14,6 C 13,9 C 11,1 C 81 % 0 lf 1000,0 hPa 0,0 l/m 0 min 0 min 0 W/m 13,5 km/h (3 Bft) 100,00 %
10.04.2018 01:38 14,6 C 13,3 C 11,1 C 81 % 0 lf 1000,0 hPa 0,0 l/m 0 min 0 min 0 W/m 6,8 km/h (2 Bft) 96,81 %
10.04.2018 01:40 14,5 C 13,3 C 10,6 C 81 % 0 lf 1000,1 hPa 0,0 l/m 0 min 0 min 0 W/m 9,0 km/h (2 Bft) 97,87 %
10.04.2018 01:42 14,5 C 13,3 C 10,6 C 81 % 0 lf 1000,1 hPa 0,0 l/m 0 min 0 min 0 W/m 9,0 km/h (2 Bft) 97,87 %
10.04.2018 01:44 14,4 C 13,3 C 10,6 C 81 % 0 lf 1000,1 hPa 0,0 l/m 0 min 0 min 0 W/m 9,0 km/h (2 Bft) 97,83 %
10.04.2018 01:46 14,4 C 13,3 C 10,6 C 81 % 0 lf 1000,1 hPa 0,0 l/m 0 min 0 min 0 W/m 11,3 km/h (2 Bft) 97,87 %
10.04.2018 01:48 14,4 C 12,8 C 10,6 C 81 % 0 lf 1000,1 hPa 0,0 l/m 0 min 0 min 0 W/m 9,0 km/h (2 Bft) 95,74 %
10.04.2018 01:50 14,3 C 12,8 C 10,0 C 81 % 0 lf 1000,1 hPa 0,0 l/m 0 min 0 min 0 W/m 11,3 km/h (2 Bft) 91,49 %
10.04.2018 01:52 14,3 C 12,8 C 10,6 C 82 % 0 lf 1000,2 hPa 0,0 l/m 0 min 0 min 0 W/m 11,3 km/h (2 Bft) 95,74 %
10.04.2018 01:54 14,3 C 12,8 C 10,6 C 82 % 0 lf 1000,2 hPa 0,0 l/m 0 min 0 min 0 W/m 11,3 km/h (2 Bft) 95,74 %
10.04.2018 01:56 14,2 C 12,8 C 10,6 C 82 % 0 lf 1000,1 hPa 0,0 l/m 0 min 0 min 0 W/m 11,3 km/h (2 Bft) 95,65 %
10.04.2018 01:58 14,2 C 12,8 C 10,6 C 82 % 0 lf 1000,1 hPa 0,0 l/m 0 min 0 min 0 W/m 13,5 km/h (3 Bft) 97,87 %
10.04.2018 02:00 14,2 C 12,8 C 10,6 C 82 % 0 lf 1000,1 hPa 0,0 l/m 0 min 0 min 0 W/m 11,3 km/h (2 Bft) 97,87 %
10.04.2018 02:02 14,2 C 12,8 C 10,6 C 82 % 0 lf 1000,1 hPa 0,0 l/m 0 min 0 min 0 W/m 13,5 km/h (3 Bft) 93,62 %
10.04.2018 02:04 14,2 C 12,8 C 10,6 C 82 % 0 lf 1000,1 hPa 0,0 l/m 0 min 0 min 0 W/m 18,0 km/h (3 Bft) 97,87 %
10.04.2018 02:08 14,1 C 12,2 C 10,0 C 82 % 0 lf 1000,1 hPa 0,0 l/m 0 min 0 min 0 W/m 13,5 km/h (3 Bft) 94,62 %
10.04.2018 02:10 13,9 C 12,2 C 10,0 C 82 % 0 lf 1000,1 hPa 0,0 l/m 0 min 0 min 0 W/m 13,5 km/h (3 Bft) 93,62 %
10.04.2018 02:12 13,9 C 12,2 C 10,0 C 83 % 0 lf 1000,2 hPa 0,0 l/m 0 min 0 min 0 W/m 11,3 km/h (2 Bft) 97,87 %
10.04.2018 02:14 13,8 C 12,2 C 10,6 C 83 % 0 lf 1000,2 hPa 0,0 l/m 0 min 0 min 0 W/m 11,3 km/h (2 Bft) 95,74 %
10.04.2018 02:16 13,8 C 12,2 C 10,6 C 83 % 0 lf 1000,3 hPa 0,0 l/m 0 min 0 min 0 W/m 11,3 km/h (2 Bft) 95,74 %
10.04.2018 02:18 13,7 C 12,2 C 10,0 C 83 % 0 lf 1000,2 hPa 0,0 l/m 0 min 0 min 0 W/m 9,0 km/h (2 Bft) 95,74 %
10.04.2018 02:20 13,7 C 12,8 C 10,6 C 84 % 0 lf 1000,2 hPa 0,0 l/m 0 min 0 min 0 W/m 13,5 km/h (3 Bft) 95,65 %
10.04.2018 02:22 13,6 C 12,8 C 10,6 C 83 % 0 lf 1000,3 hPa 0,0 l/m 0 min 0 min 0 W/m 11,3 km/h (2 Bft) 95,74 %
10.04.2018 02:24 13,6 C 12,2 C 10,6 C 84 % 0 lf 1000,2 hPa 0,0 l/m 0 min 0 min 0 W/m 9,0 km/h (2 Bft) 95,74 %
10.04.2018 02:26 13,5 C 12,2 C 10,6 C 84 % 0 lf 1000,3 hPa 0,0 l/m 0 min 0 min 0 W/m 9,0 km/h (2 Bft) 95,74 %
10.04.2018 02:28 13,5 C 12,2 C 10,0 C 84 % 0 lf 1000,2 hPa 0,0 l/m 0 min 0 min 0 W/m 9,0 km/h (2 Bft) 95,74 %
10.04.2018 02:30 13,4 C 12,2 C 10,0 C 84 % 0 lf 1000,2 hPa 0,0 l/m 0 min 0 min 0 W/m 9,0 km/h (2 Bft) 95,74 %
10.04.2018 02:32 13,4 C 12,2 C 10,0 C 84 % 0 lf 1000,2 hPa 0,0 l/m 0 min 0 min 0 W/m 11,3 km/h (2 Bft) 95,65 %
10.04.2018 02:34 13,3 C 12,2 C 10,0 C 84 % 0 lf 1000,2 hPa 0,0 l/m 0 min 0 min 0 W/m 13,5 km/h (3 Bft) 95,74 %
10.04.2018 02:38 13,3 C 12,2 C 10,0 C 84 % 0 lf 1000,3 hPa 0,0 l/m 0 min 0 min 0 W/m 11,3 km/h (2 Bft) 96,81 %
10.04.2018 02:40 13,2 C 12,2 C 10,0 C 85 % 0 lf 1000,3 hPa 0,0 l/m 0 min 0 min 0 W/m 9,0 km/h (2 Bft) 97,87 %
10.04.2018 02:42 13,2 C 12,2 C 10,0 C 85 % 0 lf 1000,3 hPa 0,0 l/m 0 min 0 min 0 W/m 11,3 km/h (2 Bft) 97,87 %
10.04.2018 02:44 13,2 C 12,2 C 10,0 C 85 % 0 lf 1000,4 hPa 0,0 l/m 0 min 0 min 0 W/m 11,3 km/h (2 Bft) 97,83 %
10.04.2018 02:46 13,2 C 12,2 C 10,0 C 85 % 0 lf 1000,3 hPa 0,0 l/m 0 min 0 min 0 W/m 9,0 km/h (2 Bft) 100,00 %
10.04.2018 02:48 13,1 C 12,2 C 10,0 C 85 % 0 lf 1000,4 hPa 0,0 l/m 0 min 0 min 0 W/m 11,3 km/h (2 Bft) 97,87 %
10.04.2018 02:50 13,1 C 12,2 C 10,0 C 85 % 0 lf 1000,4 hPa 0,0 l/m 0 min 0 min 0 W/m 9,0 km/h (2 Bft) 97,87 %
10.04.2018 02:52 13,1 C 12,2 C 10,0 C 85 % 0 lf 1000,4 hPa 0,0 l/m 0 min 0 min 0 W/m 9,0 km/h (2 Bft) 100,00 %
10.04.2018 02:54 13,0 C 12,2 C 10,0 C 85 % 0 lf 1000,4 hPa 0,0 l/m 0 min 0 min 0 W/m 6,8 km/h (2 Bft) 97,83 %
10.04.2018 02:56 13,0 C 12,2 C 10,0 C 85 % 0 lf 1000,4 hPa 0,0 l/m 0 min 0 min 0 W/m 9,0 km/h (2 Bft) 100,00 %
10.04.2018 02:58 12,9 C 12,2 C 10,0 C 86 % 0 lf 1000,5 hPa 0,0 l/m 0 min 0 min 0 W/m 11,3 km/h (2 Bft) 97,87 %
10.04.2018 03:00 12,9 C 12,2 C 10,0 C 86 % 0 lf 1000,5 hPa 0,0 l/m 0 min 0 min 0 W/m 9,0 km/h (2 Bft) 100,00 %
10.04.2018 03:02 12,9 C 11,7 C 9,4 C 86 % 0 lf 1000,4 hPa 0,0 l/m 0 min 0 min 0 W/m 9,0 km/h (2 Bft) 95,74 %
10.04.2018 03:04 12,9 C 11,7 C 9,4 C 86 % 0 lf 1000,4 hPa 0,0 l/m 0 min 0 min 0 W/m 9,0 km/h (2 Bft) 100,00 %
10.04.2018 03:08 12,8 C 11,7 C 9,4 C 86 % 0 lf 1000,4 hPa 0,0 l/m 0 min 0 min 0 W/m 9,0 km/h (2 Bft) 100,00 %
10.04.2018 03:10 12,8 C 11,7 C 9,4 C 86 % 0 lf 1000,4 hPa 0,0 l/m 0 min 0 min 0 W/m 11,3 km/h (2 Bft) 100,00 %
10.04.2018 03:12 12,8 C 11,7 C 9,4 C 86 % 0 lf 1000,4 hPa 0,0 l/m 0 min 0 min 0 W/m 11,3 km/h (2 Bft) 97,87 %
10.04.2018 03:14 12,7 C 11,7 C 8,9 C 86 % 0 lf 1000,4 hPa 0,0 l/m 0 min 0 min 0 W/m 9,0 km/h (2 Bft) 95,74 %
10.04.2018 03:16 12,7 C 11,7 C 8,9 C 86 % 0 lf 1000,5 hPa 0,0 l/m 0 min 0 min 0 W/m 6,8 km/h (2 Bft) 100,00 %
10.04.2018 03:18 12,7 C 11,7 C 8,9 C 86 % 0 lf 1000,6 hPa 0,0 l/m 0 min 0 min 0 W/m 9,0 km/h (2 Bft) 100,00 %
10.04.2018 03:20 12,7 C 11,7 C 8,9 C 86 % 0 lf 1000,6 hPa 0,0 l/m 0 min 0 min 0 W/m 9,0 km/h (2 Bft) 97,87 %
10.04.2018 03:22 12,6 C 11,7 C 9,4 C 86 % 0 lf 1000,5 hPa 0,0 l/m 0 min 0 min 0 W/m 11,3 km/h (2 Bft) 97,87 %
10.04.2018 03:24 12,6 C 11,7 C 9,4 C 86 % 0 lf 1000,5 hPa 0,0 l/m 0 min 0 min 0 W/m 9,0 km/h (2 Bft) 97,87 %
10.04.2018 03:26 12,6 C 11,7 C 9,4 C 87 % 0 lf 1000,6 hPa 0,0 l/m 0 min 0 min 0 W/m 11,3 km/h (2 Bft) 95,74 %
10.04.2018 03:28 12,6 C 11,7 C 9,4 C 87 % 0 lf 1000,6 hPa 0,0 l/m 0 min 0 min 0 W/m 11,3 km/h (2 Bft) 100,00 %
10.04.2018 03:30 12,6 C 11,7 C 9,4 C 87 % 0 lf 1000,6 hPa 0,0 l/m 0 min 0 min 0 W/m 11,3 km/h (2 Bft) 97,83 %
10.04.2018 03:32 12,5 C 11,7 C 9,4 C 87 % 0 lf 1000,7 hPa 0,0 l/m 0 min 0 min 0 W/m 9,0 km/h (2 Bft) 97,87 %
10.04.2018 03:34 12,4 C 11,7 C 9,4 C 87 % 0 lf 1000,6 hPa 0,0 l/m 0 min 0 min 0 W/m 9,0 km/h (2 Bft) 97,87 %
10.04.2018 03:38 12,4 C 11,7 C 8,9 C 87 % 0 lf 1000,6 hPa 0,0 l/m 0 min 0 min 0 W/m 9,0 km/h (2 Bft) 95,74 %
10.04.2018 03:40 12,4 C 11,7 C 8,9 C 87 % 0 lf 1000,6 hPa 0,0 l/m 0 min 0 min 0 W/m 6,8 km/h (2 Bft) 97,87 %
10.04.2018 03:42 12,4 C 11,7 C 8,9 C 87 % 0 lf 1000,6 hPa 0,0 l/m 0 min 0 min 0 W/m 9,0 km/h (2 Bft) 95,65 %
10.04.2018 03:44 12,4 C 11,7 C 8,9 C 87 % 0 lf 1000,6 hPa 0,0 l/m 0 min 0 min 0 W/m 6,8 km/h (2 Bft) 97,87 %
10.04.2018 03:46 12,4 C 11,7 C 8,9 C 87 % 0 lf 1000,5 hPa 0,0 l/m 0 min 0 min 0 W/m 4,5 km/h (1 Bft) 97,87 %
10.04.2018 03:48 12,3 C 11,7 C 8,9 C 87 % 0 lf 1000,5 hPa 0,0 l/m 0 min 0 min 0 W/m 6,8 km/h (2 Bft) 97,87 %
10.04.2018 03:50 12,3 C 11,7 C 8,3 C 87 % 0 lf 1000,4 hPa 0,0 l/m 0 min 0 min 0 W/m 6,8 km/h (2 Bft) 97,87 %
10.04.2018 03:52 12,3 C 11,7 C 8,3 C 87 % 0 lf 1000,4 hPa 0,0 l/m 0 min 0 min 0 W/m 6,8 km/h (2 Bft) 95,74 %
10.04.2018 03:54 12,3 C 11,7 C 8,3 C 87 % 0 lf 1000,3 hPa 0,0 l/m 0 min 0 min 0 W/m 4,5 km/h (1 Bft) 93,48 %
10.04.2018 03:56 12,3 C 11,7 C 8,3 C 87 % 0 lf 1000,3 hPa 0,0 l/m 0 min 0 min 0 W/m 6,8 km/h (2 Bft) 95,74 %
10.04.2018 03:58 12,2 C 11,7 C 8,3 C 87 % 0 lf 1000,4 hPa 0,0 l/m 0 min 0 min 0 W/m 9,0 km/h (2 Bft) 95,74 %
10.04.2018 04:00 12,2 C 11,1 C 8,3 C 87 % 0 lf 1000,5 hPa 0,0 l/m 0 min 0 min 0 W/m 9,0 km/h (2 Bft) 95,74 %
10.04.2018 04:02 12,2 C 11,1 C 8,3 C 88 % 0 lf 1000,5 hPa 0,0 l/m 0 min 0 min 0 W/m 13,5 km/h (3 Bft) 94,59 %
10.04.2018 04:04 12,2 C 11,1 C 8,3 C 87 % 0 lf 1000,4 hPa 0,0 l/m 0 min 0 min 0 W/m 9,0 km/h (2 Bft) 95,74 %
10.04.2018 04:08 12,2 C 11,7 C 8,9 C 88 % 0 lf 1000,4 hPa 0,0 l/m 0 min 0 min 0 W/m 6,8 km/h (2 Bft) 95,74 %
10.04.2018 04:10 12,1 C 11,7 C 8,9 C 88 % 1 lf 1000,5 hPa 0,0 l/m 0 min 0 min 0 W/m 4,5 km/h (1 Bft) 93,62 %
10.04.2018 04:12 12,1 C 11,1 C 8,3 C 88 % 1 lf 1000,5 hPa 0,0 l/m 0 min 0 min 0 W/m 6,8 km/h (2 Bft) 95,74 %
10.04.2018 04:14 12,1 C 11,1 C 8,3 C 88 % 1 lf 1000,5 hPa 0,0 l/m 0 min 0 min 0 W/m 9,0 km/h (2 Bft) 91,49 %
10.04.2018 04:16 12,1 C 11,1 C 8,3 C 88 % 1 lf 1000,5 hPa 0,0 l/m 0 min 0 min 0 W/m 9,0 km/h (2 Bft) 91,30 %
10.04.2018 04:18 12,1 C 11,1 C 7,8 C 88 % 1 lf 1000,6 hPa 0,0 l/m 0 min 0 min 0 W/m 6,8 km/h (2 Bft) 91,49 %
10.04.2018 04:20 12,1 C 11,1 C 7,8 C 88 % 1 lf 1000,6 hPa 0,0 l/m 0 min 0 min 0 W/m 9,0 km/h (2 Bft) 91,49 %
10.04.2018 04:22 12,0 C 11,1 C 7,8 C 88 % 1 lf 1000,5 hPa 0,0 l/m 0 min 0 min 0 W/m 6,8 km/h (2 Bft) 91,49 %
10.04.2018 04:24 12,0 C 11,1 C 8,3 C 88 % 1 lf 1000,6 hPa 0,0 l/m 0 min 0 min 0 W/m 9,0 km/h (2 Bft) 89,36 %
10.04.2018 04:26 12,0 C 11,1 C 7,8 C 88 % 1 lf 1000,6 hPa 0,0 l/m 0 min 0 min 0 W/m 6,8 km/h (2 Bft) 91,49 %
10.04.2018 04:28 11,9 C 11,1 C 7,8 C 88 % 1 lf 1000,6 hPa 0,0 l/m 0 min 0 min 0 W/m 4,5 km/h (1 Bft) 93,48 %
10.04.2018 04:30 11,9 C 11,1 C 7,8 C 88 % 1 lf 1000,6 hPa 0,0 l/m 0 min 0 min 0 W/m 9,0 km/h (2 Bft) 91,49 %
10.04.2018 04:32 11,9 C 11,1 C 7,8 C 88 % 1 lf 1000,5 hPa 0,0 l/m 0 min 0 min 0 W/m 2,3 km/h (1 Bft) 91,49 %
10.04.2018 04:34 11,9 C 11,1 C 7,8 C 88 % 1 lf 1000,6 hPa 0,0 l/m 0 min 0 min 0 W/m 4,5 km/h (1 Bft) 93,62 %
10.04.2018 04:38 11,8 C 10,6 C 7,8 C 88 % 1 lf 1000,5 hPa 0,0 l/m 0 min 0 min 0 W/m 4,5 km/h (1 Bft) 92,55 %
10.04.2018 04:40 11,8 C 10,6 C 7,2 C 88 % 1 lf 1000,5 hPa 0,0 l/m 0 min 0 min 0 W/m 4,5 km/h (1 Bft) 93,48 %
10.04.2018 04:42 11,8 C 10,6 C 7,2 C 88 % 1 lf 1000,5 hPa 0,0 l/m 0 min 0 min 0 W/m 4,5 km/h (1 Bft) 93,62 %
10.04.2018 04:44 11,8 C 10,0 C 7,2 C 88 % 1 lf 1000,6 hPa 0,0 l/m 0 min 0 min 0 W/m 4,5 km/h (1 Bft) 91,49 %
10.04.2018 04:46 11,7 C 10,0 C 7,2 C 88 % 1 lf 1000,6 hPa 0,0 l/m 0 min 0 min 0 W/m 4,5 km/h (1 Bft) 97,87 %
10.04.2018 04:48 11,7 C 10,6 C 7,2 C 88 % 1 lf 1000,6 hPa 0,0 l/m 0 min 0 min 0 W/m 2,3 km/h (1 Bft) 95,74 %
10.04.2018 04:50 11,7 C 10,6 C 7,2 C 88 % 1 lf 1000,6 hPa 0,0 l/m 0 min 0 min 0 W/m 2,3 km/h (1 Bft) 95,74 %
10.04.2018 04:52 11,7 C 10,6 C 7,2 C 88 % 1 lf 1000,6 hPa 0,0 l/m 0 min 0 min 0 W/m 6,8 km/h (2 Bft) 95,65 %
10.04.2018 04:54 11,6 C 10,6 C 7,2 C 88 % 1 lf 1000,5 hPa 0,0 l/m 0 min 0 min 0 W/m 2,3 km/h (1 Bft) 95,74 %
10.04.2018 04:56 11,6 C 10,6 C 7,2 C 88 % 1 lf 1000,6 hPa 0,0 l/m 0 min 0 min 0 W/m 6,8 km/h (2 Bft) 95,74 %
10.04.2018 04:58 11,6 C 10,6 C 7,2 C 88 % 1 lf 1000,6 hPa 0,0 l/m 0 min 0 min 0 W/m 6,8 km/h (2 Bft) 97,87 %
10.04.2018 05:00 11,5 C 10,6 C 7,2 C 88 % 1 lf 1000,6 hPa 0,0 l/m 0 min 0 min 0 W/m 6,8 km/h (2 Bft) 100,00 %
10.04.2018 05:02 11,5 C 10,0 C 7,2 C 88 % 1 lf 1000,6 hPa 0,0 l/m 0 min 0 min 0 W/m 6,8 km/h (2 Bft) 97,87 %
10.04.2018 05:04 11,4 C 10,6 C 7,8 C 88 % 1 lf 1000,6 hPa 0,0 l/m 0 min 0 min 0 W/m 6,8 km/h (2 Bft) 95,65 %
10.04.2018 05:08 11,4 C 10,6 C 7,8 C 88 % 1 lf 1000,6 hPa 0,0 l/m 0 min 0 min 0 W/m 11,3 km/h (2 Bft) 98,94 %
10.04.2018 05:10 11,4 C 10,6 C 7,8 C 88 % 1 lf 1000,6 hPa 0,0 l/m 0 min 0 min 0 W/m 6,8 km/h (2 Bft) 100,00 %
10.04.2018 05:12 11,4 C 10,6 C 7,8 C 88 % 1 lf 1000,5 hPa 0,0 l/m 0 min 0 min 0 W/m 6,8 km/h (2 Bft) 100,00 %
10.04.2018 05:14 11,4 C 10,6 C 7,2 C 88 % 1 lf 1000,6 hPa 0,0 l/m 0 min 0 min 0 W/m 11,3 km/h (2 Bft) 100,00 %
10.04.2018 05:16 11,3 C 10,6 C 7,2 C 88 % 1 lf 1000,6 hPa 0,0 l/m 0 min 0 min 0 W/m 4,5 km/h (1 Bft) 100,00 %
10.04.2018 05:18 11,3 C 10,6 C 7,2 C 89 % 1 lf 1000,6 hPa 0,0 l/m 0 min 0 min 0 W/m 6,8 km/h (2 Bft) 93,62 %
10.04.2018 05:20 11,3 C 10,6 C 7,2 C 89 % 1 lf 1000,6 hPa 0,0 l/m 0 min 0 min 0 W/m 4,5 km/h (1 Bft) 100,00 %
10.04.2018 05:22 11,3 C 10,6 C 7,2 C 89 % 1 lf 1000,6 hPa 0,0 l/m 0 min 0 min 0 W/m 6,8 km/h (2 Bft) 100,00 %
10.04.2018 05:24 11,3 C 10,6 C 7,2 C 89 % 1 lf 1000,6 hPa 0,0 l/m 0 min 0 min 0 W/m 9,0 km/h (2 Bft) 100,00 %
10.04.2018 05:26 11,2 C 10,6 C 7,8 C 89 % 1 lf 1000,6 hPa 0,0 l/m 0 min 0 min 0 W/m 6,8 km/h (2 Bft) 100,00 %
10.04.2018 05:28 11,2 C 10,6 C 7,8 C 89 % 1 lf 1000,6 hPa 0,0 l/m 0 min 0 min 0 W/m 4,5 km/h (1 Bft) 100,00 %
10.04.2018 05:30 11,2 C 10,6 C 7,8 C 89 % 1 lf 1000,6 hPa 0,0 l/m 0 min 0 min 0 W/m 4,5 km/h (1 Bft) 100,00 %
10.04.2018 05:32 11,2 C 10,6 C 7,8 C 89 % 1 lf 1000,6 hPa 0,0 l/m 0 min 0 min 0 W/m 6,8 km/h (2 Bft) 97,87 %
10.04.2018 05:34 11,2 C 10,6 C 7,8 C 89 % 1 lf 1000,6 hPa 0,0 l/m 0 min 0 min 0 W/m 4,5 km/h (1 Bft) 100,00 %
10.04.2018 05:35 11,2 C 10,6 C 7,8 C 89 % 1 lf 1000,6 hPa 0,0 l/m 0 min 0 min 0 W/m 6,8 km/h (2 Bft) 100,00 %
10.04.2018 05:40 11,2 C 10,0 C 7,8 C 89 % 1 lf 1000,6 hPa 0,0 l/m 0 min 0 min 0 W/m 2,3 km/h (1 Bft) 96,00 %
10.04.2018 05:42 11,1 C 10,0 C 7,8 C 89 % 1 lf 1000,6 hPa 0,0 l/m 0 min 0 min 0 W/m 2,3 km/h (1 Bft) 97,87 %
10.04.2018 05:44 11,1 C 10,0 C 7,8 C 89 % 1 lf 1000,6 hPa 0,0 l/m 0 min 0 min 0 W/m 4,5 km/h (1 Bft) 97,87 %
10.04.2018 05:46 11,1 C 10,0 C 7,8 C 89 % 1 lf 1000,7 hPa 0,0 l/m 0 min 0 min 0 W/m 4,5 km/h (1 Bft) 91,49 %
10.04.2018 05:48 11,1 C 10,0 C 7,8 C 89 % 1 lf 1000,6 hPa 0,0 l/m 0 min 0 min 0 W/m 2,3 km/h (1 Bft) 100,00 %
10.04.2018 05:50 11,1 C 10,0 C 7,8 C 89 % 1 lf 1000,6 hPa 0,0 l/m 0 min 0 min 0 W/m 4,5 km/h (1 Bft) 100,00 %
10.04.2018 05:52 11,1 C 10,0 C 7,2 C 90 % 1 lf 1000,7 hPa 0,0 l/m 0 min 0 min 0 W/m 0,0 km/h (0 Bft) 97,87 %
10.04.2018 05:54 11,0 C 10,0 C 7,2 C 90 % 1 lf 1000,7 hPa 0,0 l/m 0 min 0 min 0 W/m 0,0 km/h (0 Bft) 97,87 %
10.04.2018 05:56 11,0 C 10,0 C 7,2 C 89 % 1 lf 1000,7 hPa 0,0 l/m 0 min 0 min 0 W/m 0,0 km/h (0 Bft) 95,74 %
10.04.2018 05:58 10,9 C 10,0 C 7,2 C 89 % 1 lf 1000,8 hPa 0,0 l/m 0 min 0 min 0 W/m 0,0 km/h (0 Bft) 100,00 %
10.04.2018 06:00 10,9 C 10,0 C 7,2 C 89 % 1 lf 1000,8 hPa 0,0 l/m 0 min 0 min 0 W/m 0,0 km/h (0 Bft) 100,00 %
10.04.2018 06:02 10,9 C 10,0 C 7,2 C 89 % 1 lf 1000,8 hPa 0,0 l/m 0 min 0 min 0 W/m 2,3 km/h (1 Bft) 100,00 %
10.04.2018 06:04 10,9 C 10,0 C 7,2 C 90 % 1 lf 1000,9 hPa 0,0 l/m 0 min 0 min 0 W/m 0,0 km/h (0 Bft) 100,00 %
10.04.2018 06:08 10,9 C 10,0 C 7,2 C 89 % 2 lf 1000,9 hPa 0,0 l/m 0 min 0 min 0 W/m 6,8 km/h (2 Bft) 100,00 %
10.04.2018 06:10 10,8 C 10,0 C 7,2 C 89 % 2 lf 1000,9 hPa 0,0 l/m 0 min 0 min 0 W/m 4,5 km/h (1 Bft) 100,00 %
10.04.2018 06:12 10,8 C 10,0 C 7,2 C 89 % 2 lf 1000,9 hPa 0,0 l/m 0 min 0 min 0 W/m 4,5 km/h (1 Bft) 97,87 %
10.04.2018 06:14 10,8 C 10,0 C 7,2 C 89 % 2 lf 1000,9 hPa 0,0 l/m 0 min 0 min 0 W/m 4,5 km/h (1 Bft) 100,00 %
10.04.2018 06:16 10,8 C 10,0 C 7,2 C 90 % 2 lf 1000,8 hPa 0,0 l/m 0 min 0 min 0 W/m 6,8 km/h (2 Bft) 100,00 %
10.04.2018 06:18 10,8 C 10,0 C 7,2 C 90 % 2 lf 1000,8 hPa 0,0 l/m 0 min 0 min 0 W/m 9,0 km/h (2 Bft) 100,00 %
10.04.2018 06:20 10,8 C 10,0 C 7,2 C 90 % 2 lf 1000,8 hPa 0,0 l/m 0 min 0 min 0 W/m 6,8 km/h (2 Bft) 100,00 %
10.04.2018 06:22 10,7 C 10,6 C 7,2 C 90 % 1 lf 1000,8 hPa 0,0 l/m 0 min 0 min 0 W/m 11,3 km/h (2 Bft) 97,14 %
10.04.2018 06:24 10,7 C 10,6 C 7,2 C 90 % 1 lf 1000,8 hPa 0,0 l/m 0 min 0 min 0 W/m 9,0 km/h (2 Bft) 97,87 %
10.04.2018 06:26 10,8 C 10,6 C 7,8 C 90 % 1 lf 1000,8 hPa 0,0 l/m 0 min 0 min 0 W/m 9,0 km/h (2 Bft) 97,87 %
10.04.2018 06:28 10,8 C 10,6 C 7,8 C 90 % 1 lf 1000,8 hPa 0,0 l/m 0 min 0 min 0 W/m 6,8 km/h (2 Bft) 97,83 %
10.04.2018 06:30 10,8 C 10,6 C 7,8 C 91 % 1 lf 1000,8 hPa 0,0 l/m 0 min 0 min 0 W/m 9,0 km/h (2 Bft) 97,87 %
10.04.2018 06:32 10,8 C 10,6 C 7,8 C 91 % 1 lf 1000,8 hPa 0,0 l/m 0 min 0 min 0 W/m 4,5 km/h (1 Bft) 97,87 %
10.04.2018 06:34 10,8 C 10,6 C 7,8 C 91 % 1 lf 1000,8 hPa 0,0 l/m 0 min 0 min 0 W/m 4,5 km/h (1 Bft) 97,87 %
10.04.2018 06:38 10,8 C 10,6 C 7,2 C 91 % 1 lf 1000,8 hPa 0,0 l/m 0 min 0 min 0 W/m 6,8 km/h (2 Bft) 92,55 %
10.04.2018 06:40 10,8 C 10,6 C 7,2 C 91 % 1 lf 1000,8 hPa 0,0 l/m 0 min 0 min 0 W/m 4,5 km/h (1 Bft) 97,83 %
10.04.2018 06:42 10,8 C 10,6 C 7,2 C 91 % 1 lf 1000,8 hPa 0,0 l/m 0 min 0 min 0 W/m 4,5 km/h (1 Bft) 93,62 %
10.04.2018 06:44 10,8 C 10,6 C 7,2 C 91 % 1 lf 1000,8 hPa 0,0 l/m 0 min 0 min 0 W/m 6,8 km/h (2 Bft) 93,62 %
10.04.2018 06:46 10,8 C 10,6 C 7,2 C 91 % 1 lf 1000,8 hPa 0,0 l/m 0 min 0 min 0 W/m 4,5 km/h (1 Bft) 93,62 %
10.04.2018 06:48 10,8 C 10,6 C 7,2 C 91 % 1 lf 1000,8 hPa 0,0 l/m 0 min 0 min 0 W/m 4,5 km/h (1 Bft) 95,74 %
10.04.2018 06:50 10,8 C 10,6 C 7,2 C 91 % 1 lf 1000,8 hPa 0,0 l/m 0 min 0 min 0 W/m 4,5 km/h (1 Bft) 93,10 %
10.04.2018 06:52 10,8 C 10,0 C 7,2 C 91 % 1 lf 1000,8 hPa 0,0 l/m 0 min 0 min 0 W/m 6,8 km/h (2 Bft) 91,43 %
10.04.2018 06:54 10,8 C 10,6 C 7,2 C 91 % 1 lf 1000,8 hPa 0,0 l/m 0 min 0 min 1 W/m 6,8 km/h (2 Bft) 93,62 %
10.04.2018 06:56 10,8 C 10,6 C 7,2 C 91 % 1 lf 1000,8 hPa 0,0 l/m 0 min 0 min 5 W/m 6,8 km/h (2 Bft) 89,36 %
10.04.2018 06:58 10,8 C 10,6 C 7,2 C 91 % 1 lf 1000,8 hPa 0,0 l/m 0 min 0 min 5 W/m 6,8 km/h (2 Bft) 89,36 %
10.04.2018 07:00 10,8 C 10,6 C 7,8 C 92 % 1 lf 1000,9 hPa 0,0 l/m 0 min 0 min 5 W/m 6,8 km/h (2 Bft) 89,36 %
10.04.2018 07:02 10,8 C 10,6 C 7,2 C 92 % 1 lf 1000,8 hPa 0,0 l/m 0 min 0 min 7 W/m 4,5 km/h (1 Bft) 93,62 %
10.04.2018 07:04 10,8 C 10,6 C 7,8 C 92 % 1 lf 1000,7 hPa 0,0 l/m 0 min 0 min 8 W/m 4,5 km/h (1 Bft) 95,65 %
10.04.2018 07:08 10,7 C 10,6 C 7,8 C 92 % 1 lf 1000,8 hPa 0,0 l/m 0 min 0 min 10 W/m 4,5 km/h (1 Bft) 92,55 %
10.04.2018 07:10 10,7 C 10,6 C 7,8 C 92 % 1 lf 1000,8 hPa 0,0 l/m 0 min 0 min 12 W/m 4,5 km/h (1 Bft) 89,36 %
10.04.2018 07:12 10,7 C 10,6 C 7,8 C 92 % 1 lf 1000,8 hPa 0,0 l/m 0 min 0 min 14 W/m 4,5 km/h (1 Bft) 93,62 %
10.04.2018 07:14 10,7 C 10,6 C 7,8 C 92 % 1 lf 1000,8 hPa 0,0 l/m 0 min 0 min 18 W/m 4,5 km/h (1 Bft) 91,49 %
10.04.2018 07:16 10,7 C 10,6 C 7,8 C 92 % 1 lf 1000,8 hPa 0,0 l/m 0 min 0 min 20 W/m 2,3 km/h (1 Bft) 93,48 %
10.04.2018 07:18 10,7 C 10,6 C 7,8 C 92 % 1 lf 1000,9 hPa 0,0 l/m 0 min 0 min 22 W/m 6,8 km/h (2 Bft) 93,62 %
10.04.2018 07:20 10,7 C 10,6 C 7,8 C 92 % 1 lf 1001,0 hPa 0,0 l/m 0 min 0 min 26 W/m 6,8 km/h (2 Bft) 93,22 %
10.04.2018 07:22 10,7 C 10,6 C 7,8 C 92 % 1 lf 1001,0 hPa 0,0 l/m 0 min 0 min 29 W/m 6,8 km/h (2 Bft) 91,43 %
10.04.2018 07:24 10,7 C 10,6 C 7,8 C 92 % 1 lf 1001,0 hPa 0,0 l/m 0 min 0 min 33 W/m 9,0 km/h (2 Bft) 95,74 %
10.04.2018 07:26 10,7 C 11,1 C 8,3 C 92 % 1 lf 1001,1 hPa 0,0 l/m 0 min 0 min 38 W/m 6,8 km/h (2 Bft) 95,74 %
10.04.2018 07:28 10,7 C 11,1 C 8,3 C 92 % 1 lf 1001,2 hPa 0,0 l/m 0 min 0 min 42 W/m 6,8 km/h (2 Bft) 95,65 %
10.04.2018 07:30 10,7 C 11,1 C 8,3 C 92 % 1 lf 1001,1 hPa 0,0 l/m 0 min 0 min 44 W/m 6,8 km/h (2 Bft) 91,49 %
10.04.2018 07:32 10,7 C 11,1 C 8,3 C 92 % 1 lf 1001,1 hPa 0,0 l/m 0 min 0 min 47 W/m 6,8 km/h (2 Bft) 96,23 %
10.04.2018 07:34 10,7 C 11,1 C 8,3 C 92 % 1 lf 1001,0 hPa 0,0 l/m 0 min 0 min 49 W/m 9,0 km/h (2 Bft) 95,74 %
10.04.2018 07:38 10,8 C 11,7 C 8,9 C 92 % 1 lf 1001,2 hPa 0,0 l/m 0 min 0 min 49 W/m 6,8 km/h (2 Bft) 93,62 %
10.04.2018 07:40 10,8 C 11,7 C 8,9 C 92 % 1 lf 1001,2 hPa 0,0 l/m 0 min 0 min 51 W/m 9,0 km/h (2 Bft) 95,74 %
10.04.2018 07:42 10,8 C 11,7 C 8,9 C 92 % 1 lf 1001,2 hPa 0,0 l/m 0 min 0 min 53 W/m 9,0 km/h (2 Bft) 95,74 %
10.04.2018 07:44 10,8 C 11,7 C 8,9 C 93 % 0 lf 1001,2 hPa 0,0 l/m 0 min 0 min 40 W/m 9,0 km/h (2 Bft) 95,65 %
10.04.2018 07:46 10,8 C 11,7 C 9,4 C 93 % 0 lf 1001,3 hPa 0,0 l/m 0 min 0 min 14 W/m 6,8 km/h (2 Bft) 93,62 %
10.04.2018 07:48 10,8 C 11,7 C 9,4 C 93 % 0 lf 1001,3 hPa 0,0 l/m 0 min 0 min 14 W/m 6,8 km/h (2 Bft) 97,87 %
10.04.2018 07:50 10,9 C 11,7 C 9,4 C 93 % 0 lf 1001,3 hPa 0,0 l/m 0 min 0 min 15 W/m 4,5 km/h (1 Bft) 96,61 %
10.04.2018 07:52 10,9 C 12,2 C 9,4 C 93 % 0 lf 1001,3 hPa 0,0 l/m 0 min 0 min 16 W/m 6,8 km/h (2 Bft) 100,00 %
10.04.2018 07:54 10,9 C 12,2 C 9,4 C 93 % 0 lf 1001,3 hPa 0,0 l/m 0 min 0 min 16 W/m 11,3 km/h (2 Bft) 100,00 %
10.04.2018 07:56 10,9 C 12,2 C 9,4 C 93 % 0 lf 1001,3 hPa 0,0 l/m 0 min 0 min 16 W/m 6,8 km/h (2 Bft) 97,83 %
10.04.2018 07:58 11,0 C 12,2 C 9,4 C 93 % 0 lf 1001,3 hPa 0,0 l/m 0 min 0 min 16 W/m 6,8 km/h (2 Bft) 97,87 %
10.04.2018 08:00 11,0 C 12,2 C 10,0 C 93 % 0 lf 1001,4 hPa 0,0 l/m 0 min 0 min 16 W/m 4,5 km/h (1 Bft) 100,00 %
10.04.2018 08:02 11,0 C 12,2 C 10,0 C 93 % 0 lf 1001,3 hPa 0,0 l/m 0 min 0 min 18 W/m 4,5 km/h (1 Bft) 97,87 %
10.04.2018 08:04 11,1 C 12,2 C 10,0 C 93 % 0 lf 1001,4 hPa 0,0 l/m 0 min 0 min 18 W/m 4,5 km/h (1 Bft) 100,00 %
10.04.2018 08:08 11,1 C 12,2 C 10,0 C 93 % 0 lf 1001,4 hPa 0,0 l/m 0 min 0 min 18 W/m 6,8 km/h (2 Bft) 98,92 %
10.04.2018 08:10 11,1 C 12,8 C 10,0 C 93 % 0 lf 1001,4 hPa 0,0 l/m 0 min 0 min 18 W/m 0,0 km/h (0 Bft) 100,00 %
10.04.2018 08:12 11,2 C 12,8 C 10,0 C 93 % 0 lf 1001,4 hPa 0,0 l/m 0 min 0 min 18 W/m 4,5 km/h (1 Bft) 100,00 %
10.04.2018 08:14 11,2 C 12,8 C 10,0 C 93 % 0 lf 1001,5 hPa 0,0 l/m 0 min 0 min 16 W/m 4,5 km/h (1 Bft) 100,00 %
10.04.2018 08:16 11,2 C 12,8 C 10,0 C 93 % 0 lf 1001,4 hPa 0,0 l/m 0 min 0 min 16 W/m 9,0 km/h (2 Bft) 100,00 %
10.04.2018 08:18 11,3 C 12,8 C 10,6 C 93 % 0 lf 1001,5 hPa 0,0 l/m 0 min 0 min 16 W/m 6,8 km/h (2 Bft) 97,87 %
10.04.2018 08:20 11,3 C 12,8 C 10,6 C 93 % 0 lf 1001,5 hPa 0,0 l/m 0 min 0 min 16 W/m 9,0 km/h (2 Bft) 98,28 %
10.04.2018 08:22 11,3 C 12,8 C 10,6 C 93 % 0 lf 1001,5 hPa 0,0 l/m 0 min 0 min 16 W/m 9,0 km/h (2 Bft) 94,29 %
10.04.2018 08:24 11,4 C 12,8 C 10,6 C 93 % 0 lf 1001,5 hPa 0,0 l/m 0 min 0 min 16 W/m 9,0 km/h (2 Bft) 100,00 %
10.04.2018 08:26 11,4 C 12,8 C 10,6 C 93 % 0 lf 1001,5 hPa 0,0 l/m 0 min 0 min 16 W/m 6,8 km/h (2 Bft) 95,74 %
10.04.2018 08:28 11,4 C 12,8 C 10,6 C 93 % 0 lf 1001,6 hPa 0,0 l/m 0 min 0 min 16 W/m 6,8 km/h (2 Bft) 95,74 %
10.04.2018 08:30 11,5 C 12,8 C 11,1 C 93 % 0 lf 1001,6 hPa 0,0 l/m 0 min 0 min 17 W/m 9,0 km/h (2 Bft) 97,87 %
10.04.2018 08:32 11,5 C 12,8 C 11,1 C 93 % 0 lf 1001,6 hPa 0,0 l/m 0 min 0 min 18 W/m 13,5 km/h (3 Bft) 100,00 %
10.04.2018 08:34 11,6 C 13,3 C 11,1 C 93 % 0 lf 1001,7 hPa 0,0 l/m 0 min 0 min 18 W/m 11,3 km/h (2 Bft) 100,00 %
10.04.2018 08:38 11,7 C 13,3 C 11,1 C 93 % 0 lf 1001,7 hPa 0,0 l/m 0 min 0 min 19 W/m 15,8 km/h (3 Bft) 96,81 %
10.04.2018 08:40 11,7 C 13,3 C 11,7 C 93 % 0 lf 1001,7 hPa 0,0 l/m 0 min 0 min 21 W/m 18,0 km/h (3 Bft) 97,87 %
10.04.2018 08:42 11,8 C 13,3 C 11,7 C 93 % 0 lf 1001,8 hPa 0,0 l/m 0 min 0 min 23 W/m 18,0 km/h (3 Bft) 97,87 %
10.04.2018 08:44 11,8 C 13,3 C 11,7 C 93 % 0 lf 1001,7 hPa 0,0 l/m 0 min 0 min 25 W/m 13,5 km/h (3 Bft) 95,65 %
10.04.2018 08:46 11,9 C 13,9 C 12,2 C 93 % 0 lf 1001,8 hPa 0,0 l/m 0 min 0 min 25 W/m 18,0 km/h (3 Bft) 95,24 %
10.04.2018 08:48 12,0 C 13,9 C 12,2 C 92 % 0 lf 1001,8 hPa 0,0 l/m 0 min 0 min 27 W/m 13,5 km/h (3 Bft) 95,74 %
10.04.2018 08:50 12,1 C 13,9 C 12,2 C 92 % 0 lf 1001,8 hPa 0,0 l/m 0 min 0 min 28 W/m 13,5 km/h (3 Bft) 96,55 %
10.04.2018 08:52 12,1 C 13,9 C 12,2 C 92 % 0 lf 1001,9 hPa 0,0 l/m 0 min 0 min 30 W/m 18,0 km/h (3 Bft) 97,14 %
10.04.2018 08:54 12,2 C 14,4 C 12,2 C 92 % 0 lf 1002,0 hPa 0,0 l/m 0 min 0 min 30 W/m 15,8 km/h (3 Bft) 95,74 %
10.04.2018 08:56 12,3 C 14,4 C 12,2 C 91 % 0 lf 1002,0 hPa 0,0 l/m 0 min 0 min 32 W/m 11,3 km/h (2 Bft) 95,74 %
10.04.2018 08:58 12,3 C 14,4 C 12,2 C 91 % 0 lf 1002,0 hPa 0,0 l/m 0 min 0 min 33 W/m 15,8 km/h (3 Bft) 97,87 %
10.04.2018 09:00 12,4 C 15,0 C 12,8 C 91 % 0 lf 1002,0 hPa 0,0 l/m 0 min 0 min 41 W/m 13,5 km/h (3 Bft) 95,74 %
10.04.2018 09:02 12,5 C 16,1 C 12,8 C 91 % 0 lf 1002,0 hPa 0,0 l/m 0 min 0 min 47 W/m 13,5 km/h (3 Bft) 93,48 %
10.04.2018 09:04 12,6 C 16,7 C 12,8 C 91 % 0 lf 1002,1 hPa 0,0 l/m 0 min 0 min 55 W/m 6,8 km/h (2 Bft) 97,87 %
10.04.2018 09:08 12,8 C 16,7 C 12,8 C 90 % 0 lf 1002,2 hPa 0,0 l/m 0 min 0 min 59 W/m 18,0 km/h (3 Bft) 93,62 %
10.04.2018 09:10 12,9 C 16,1 C 12,8 C 90 % 0 lf 1002,1 hPa 0,0 l/m 0 min 0 min 57 W/m 15,8 km/h (3 Bft) 95,74 %
10.04.2018 09:12 13,0 C 17,2 C 12,8 C 90 % 0 lf 1002,2 hPa 0,0 l/m 0 min 0 min 60 W/m 18,0 km/h (3 Bft) 95,74 %
10.04.2018 09:14 13,1 C 18,3 C 12,8 C 89 % 0 lf 1002,1 hPa 0,0 l/m 0 min 0 min 60 W/m 15,8 km/h (3 Bft) 95,65 %
10.04.2018 09:16 13,2 C 18,9 C 13,3 C 89 % 0 lf 1002,1 hPa 0,0 l/m 0 min 0 min 63 W/m 13,5 km/h (3 Bft) 95,74 %
10.04.2018 09:18 13,3 C 18,9 C 13,3 C 89 % 0 lf 1002,2 hPa 0,0 l/m 0 min 0 min 67 W/m 9,0 km/h (2 Bft) 97,87 %
10.04.2018 09:20 13,4 C 18,9 C 13,9 C 89 % 0 lf 1002,3 hPa 0,0 l/m 0 min 0 min 71 W/m 11,3 km/h (2 Bft) 96,55 %
10.04.2018 09:22 13,5 C 18,9 C 14,4 C 89 % 0 lf 1002,3 hPa 0,0 l/m 0 min 0 min 76 W/m 9,0 km/h (2 Bft) 97,22 %
10.04.2018 09:24 13,6 C 18,9 C 15,0 C 88 % 0 lf 1002,4 hPa 0,0 l/m 0 min 0 min 81 W/m 13,5 km/h (3 Bft) 97,83 %
10.04.2018 09:26 13,7 C 18,3 C 15,0 C 88 % 0 lf 1002,4 hPa 0,0 l/m 0 min 0 min 84 W/m 20,3 km/h (4 Bft) 95,74 %
10.04.2018 09:28 13,9 C 17,8 C 15,0 C 87 % 0 lf 1002,4 hPa 0,0 l/m 0 min 0 min 86 W/m 18,0 km/h (3 Bft) 93,62 %
10.04.2018 09:30 14,1 C 18,3 C 14,4 C 86 % 0 lf 1002,4 hPa 0,0 l/m 0 min 0 min 89 W/m 15,8 km/h (3 Bft) 95,74 %
10.04.2018 09:32 14,2 C 18,3 C 15,0 C 86 % 0 lf 1002,4 hPa 0,0 l/m 0 min 0 min 91 W/m 18,0 km/h (3 Bft) 97,87 %
10.04.2018 09:34 14,2 C 18,3 C 15,0 C 85 % 0 lf 1002,4 hPa 0,0 l/m 0 min 0 min 83 W/m 18,0 km/h (3 Bft) 95,74 %
10.04.2018 09:38 14,4 C 16,1 C 14,4 C 84 % 0 lf 1002,4 hPa 0,0 l/m 0 min 0 min 39 W/m 20,3 km/h (4 Bft) 97,85 %
10.04.2018 09:40 14,4 C 16,1 C 14,4 C 83 % 0 lf 1002,5 hPa 0,0 l/m 0 min 0 min 40 W/m 18,0 km/h (3 Bft) 95,74 %
10.04.2018 09:42 14,5 C 15,6 C 14,4 C 83 % 0 lf 1002,5 hPa 0,0 l/m 0 min 0 min 39 W/m 18,0 km/h (3 Bft) 93,62 %
10.04.2018 09:44 14,5 C 15,6 C 14,4 C 83 % 0 lf 1002,5 hPa 0,0 l/m 0 min 0 min 36 W/m 15,8 km/h (3 Bft) 97,87 %
10.04.2018 09:46 14,6 C 16,1 C 14,4 C 82 % 0 lf 1002,5 hPa 0,0 l/m 0 min 0 min 50 W/m 13,5 km/h (3 Bft) 97,87 %
10.04.2018 09:48 14,6 C 16,1 C 14,4 C 82 % 0 lf 1002,5 hPa 0,0 l/m 0 min 0 min 47 W/m 15,8 km/h (3 Bft) 100,00 %
10.04.2018 09:50 14,6 C 16,1 C 15,0 C 82 % 0 lf 1002,5 hPa 0,0 l/m 0 min 0 min 48 W/m 15,8 km/h (3 Bft) 98,31 %
10.04.2018 09:52 14,7 C 16,7 C 15,0 C 82 % 0 lf 1002,5 hPa 0,0 l/m 0 min 0 min 47 W/m 15,8 km/h (3 Bft) 100,00 %
10.04.2018 09:54 14,7 C 16,7 C 15,6 C 82 % 0 lf 1002,5 hPa 0,0 l/m 0 min 0 min 54 W/m 15,8 km/h (3 Bft) 95,74 %
10.04.2018 09:56 14,7 C 16,7 C 15,6 C 82 % 0 lf 1002,6 hPa 0,0 l/m 0 min 0 min 69 W/m 20,3 km/h (4 Bft) 97,87 %
10.04.2018 09:58 14,7 C 17,2 C 16,1 C 82 % 0 lf 1002,5 hPa 0,0 l/m 0 min 0 min 69 W/m 20,3 km/h (4 Bft) 95,74 %
10.04.2018 10:00 14,8 C 17,2 C 16,1 C 82 % 0 lf 1002,5 hPa 0,0 l/m 0 min 0 min 56 W/m 20,3 km/h (4 Bft) 95,65 %
10.04.2018 10:02 14,8 C 16,7 C 16,1 C 82 % 0 lf 1002,5 hPa 0,0 l/m 0 min 0 min 37 W/m 15,8 km/h (3 Bft) 91,49 %
10.04.2018 10:04 14,9 C 16,1 C 15,6 C 82 % 0 lf 1002,5 hPa 0,0 l/m 0 min 0 min 37 W/m 11,3 km/h (2 Bft) 97,87 %
10.04.2018 10:08 14,9 C 16,1 C 15,6 C 81 % 0 lf 1002,5 hPa 0,0 l/m 0 min 0 min 38 W/m 18,0 km/h (3 Bft) 97,87 %
10.04.2018 10:10 14,9 C 16,1 C 15,6 C 81 % 0 lf 1002,6 hPa 0,0 l/m 0 min 0 min 45 W/m 15,8 km/h (3 Bft) 93,62 %
10.04.2018 10:12 14,9 C 16,1 C 15,6 C 81 % 0 lf 1002,6 hPa 0,0 l/m 0 min 0 min 43 W/m 13,5 km/h (3 Bft) 95,65 %
10.04.2018 10:14 15,0 C 16,1 C 15,6 C 81 % 0 lf 1002,6 hPa 0,0 l/m 0 min 0 min 43 W/m 18,0 km/h (3 Bft) 97,87 %
10.04.2018 10:16 15,0 C 16,7 C 15,6 C 80 % 0 lf 1002,6 hPa 0,0 l/m 0 min 0 min 44 W/m 20,3 km/h (4 Bft) 95,74 %
10.04.2018 10:18 15,0 C 16,1 C 15,6 C 80 % 0 lf 1002,7 hPa 0,0 l/m 0 min 0 min 45 W/m 15,8 km/h (3 Bft) 95,74 %
10.04.2018 10:20 15,1 C 16,7 C 16,1 C 80 % 0 lf 1002,7 hPa 0,0 l/m 0 min 0 min 53 W/m 13,5 km/h (3 Bft) 94,83 %
10.04.2018 10:22 15,1 C 17,8 C 16,1 C 81 % 0 lf 1002,8 hPa 0,0 l/m 0 min 0 min 54 W/m 18,0 km/h (3 Bft) 90,24 %
10.04.2018 10:24 15,1 C 17,8 C 16,7 C 81 % 0 lf 1002,7 hPa 0,0 l/m 0 min 0 min 63 W/m 11,3 km/h (2 Bft) 97,56 %
10.04.2018 10:26 15,2 C 18,3 C 17,2 C 81 % 0 lf 1002,8 hPa 0,0 l/m 0 min 0 min 72 W/m 15,8 km/h (3 Bft) 91,49 %
10.04.2018 10:28 15,2 C 18,9 C 17,8 C 80 % 0 lf 1002,8 hPa 0,0 l/m 0 min 0 min 76 W/m 22,5 km/h (4 Bft) 95,74 %
10.04.2018 10:30 15,3 C 19,4 C 18,3 C 80 % 0 lf 1002,9 hPa 0,0 l/m 0 min 0 min 78 W/m 18,0 km/h (3 Bft) 93,62 %
10.04.2018 10:32 15,4 C 18,9 C 18,3 C 80 % 0 lf 1002,8 hPa 0,0 l/m 0 min 0 min 78 W/m 24,8 km/h (4 Bft) 93,62 %
10.04.2018 10:34 15,5 C 20,0 C 18,9 C 80 % 0 lf 1002,9 hPa 0,0 l/m 0 min 0 min 76 W/m 18,0 km/h (3 Bft) 93,48 %
10.04.2018 10:38 15,7 C 19,4 C 18,3 C 79 % 0 lf 1002,8 hPa 0,0 l/m 0 min 0 min 75 W/m 15,8 km/h (3 Bft) 93,62 %
10.04.2018 10:40 15,8 C 19,4 C 18,3 C 78 % 0 lf 1002,8 hPa 0,0 l/m 0 min 0 min 71 W/m 20,3 km/h (4 Bft) 95,74 %
10.04.2018 10:42 15,8 C 19,4 C 18,3 C 77 % 0 lf 1002,8 hPa 0,0 l/m 0 min 0 min 69 W/m 15,8 km/h (3 Bft) 95,74 %
10.04.2018 10:44 15,9 C 20,0 C 18,3 C 78 % 0 lf 1002,8 hPa 0,0 l/m 0 min 0 min 70 W/m 15,8 km/h (3 Bft) 95,74 %
10.04.2018 10:46 16,0 C 20,6 C 18,9 C 78 % 0 lf 1002,8 hPa 0,0 l/m 0 min 0 min 70 W/m 11,3 km/h (2 Bft) 97,83 %
10.04.2018 10:48 16,1 C 19,4 C 18,9 C 77 % 0 lf 1002,9 hPa 0,0 l/m 0 min 0 min 69 W/m 13,5 km/h (3 Bft) 95,74 %
10.04.2018 10:50 16,2 C 19,4 C 18,9 C 76 % 0 lf 1002,9 hPa 0,0 l/m 0 min 0 min 68 W/m 11,3 km/h (2 Bft) 93,22 %
10.04.2018 10:52 16,3 C 19,4 C 18,9 C 76 % 0 lf 1002,9 hPa 0,0 l/m 0 min 0 min 69 W/m 13,5 km/h (3 Bft) 100,00 %
10.04.2018 10:54 16,3 C 18,9 C 18,9 C 75 % 0 lf 1002,9 hPa 0,0 l/m 0 min 0 min 70 W/m 13,5 km/h (3 Bft) 95,74 %
10.04.2018 10:56 16,4 C 18,9 C 18,9 C 74 % 0 lf 1002,9 hPa 0,0 l/m 0 min 0 min 71 W/m 13,5 km/h (3 Bft) 95,74 %
10.04.2018 10:58 16,4 C 19,4 C 18,9 C 74 % 0 lf 1002,9 hPa 0,0 l/m 0 min 0 min 68 W/m 11,3 km/h (2 Bft) 93,48 %
10.04.2018 11:00 16,5 C 20,0 C 18,3 C 73 % 0 lf 1003,0 hPa 0,0 l/m 0 min 0 min 72 W/m 15,8 km/h (3 Bft) 97,87 %
10.04.2018 11:02 16,5 C 20,0 C 18,9 C 72 % 0 lf 1003,0 hPa 0,0 l/m 0 min 0 min 71 W/m 15,8 km/h (3 Bft) 91,49 %
10.04.2018 11:04 16,6 C 20,0 C 18,9 C 72 % 0 lf 1003,0 hPa 0,0 l/m 0 min 0 min 68 W/m 18,0 km/h (3 Bft) 91,49 %
10.04.2018 11:08 16,7 C 18,9 C 18,3 C 70 % 0 lf 1003,1 hPa 0,0 l/m 0 min 0 min 54 W/m 18,0 km/h (3 Bft) 94,68 %
10.04.2018 11:10 16,7 C 18,9 C 18,3 C 70 % 0 lf 1003,1 hPa 0,0 l/m 0 min 0 min 54 W/m 11,3 km/h (2 Bft) 95,65 %
10.04.2018 11:12 16,8 C 18,3 C 18,3 C 70 % 0 lf 1003,0 hPa 0,0 l/m 0 min 0 min 52 W/m 13,5 km/h (3 Bft) 97,87 %
10.04.2018 11:14 16,8 C 18,3 C 18,3 C 71 % 0 lf 1003,0 hPa 0,0 l/m 0 min 0 min 48 W/m 20,3 km/h (4 Bft) 100,00 %
10.04.2018 11:16 16,8 C 18,3 C 17,8 C 70 % 0 lf 1003,1 hPa 0,0 l/m 0 min 0 min 46 W/m 18,0 km/h (3 Bft) 97,87 %
10.04.2018 11:18 16,8 C 17,8 C 17,8 C 70 % 0 lf 1003,0 hPa 0,0 l/m 0 min 0 min 44 W/m 11,3 km/h (2 Bft) 95,74 %
10.04.2018 11:20 16,8 C 17,8 C 17,8 C 69 % 0 lf 1003,1 hPa 0,0 l/m 0 min 0 min 42 W/m 15,8 km/h (3 Bft) 94,83 %
10.04.2018 11:22 16,8 C 17,2 C 17,8 C 69 % 0 lf 1003,1 hPa 0,0 l/m 0 min 0 min 40 W/m 13,5 km/h (3 Bft) 95,12 %
10.04.2018 11:24 16,8 C 17,2 C 17,8 C 69 % 0 lf 1003,0 hPa 0,0 l/m 0 min 0 min 39 W/m 9,0 km/h (2 Bft) 100,00 %
10.04.2018 11:26 16,8 C 17,2 C 17,2 C 69 % 0 lf 1003,0 hPa 0,0 l/m 0 min 0 min 38 W/m 15,8 km/h (3 Bft) 95,74 %
10.04.2018 11:28 16,7 C 17,2 C 17,2 C 69 % 0 lf 1003,0 hPa 0,0 l/m 0 min 0 min 37 W/m 18,0 km/h (3 Bft) 97,87 %
10.04.2018 11:30 16,7 C 17,8 C 17,2 C 69 % 0 lf 1003,0 hPa 0,0 l/m 0 min 0 min 37 W/m 9,0 km/h (2 Bft) 97,87 %
10.04.2018 11:32 16,7 C 17,8 C 17,2 C 69 % 0 lf 1003,0 hPa 0,0 l/m 0 min 0 min 37 W/m 9,0 km/h (2 Bft) 97,87 %
10.04.2018 11:34 16,7 C 17,8 C 17,2 C 69 % 0 lf 1003,0 hPa 0,0 l/m 0 min 0 min 39 W/m 11,3 km/h (2 Bft) 95,65 %
10.04.2018 11:38 16,7 C 18,3 C 17,8 C 70 % 0 lf 1003,0 hPa 0,0 l/m 0 min 0 min 41 W/m 9,0 km/h (2 Bft) 97,87 %
10.04.2018 11:40 16,7 C 17,8 C 17,8 C 69 % 0 lf 1003,0 hPa 0,0 l/m 0 min 0 min 44 W/m 6,8 km/h (2 Bft) 97,87 %
10.04.2018 11:42 16,8 C 18,3 C 18,3 C 69 % 0 lf 1003,0 hPa 0,0 l/m 0 min 0 min 45 W/m 4,5 km/h (1 Bft) 95,74 %
10.04.2018 11:44 16,8 C 18,3 C 18,3 C 69 % 0 lf 1003,0 hPa 0,0 l/m 0 min 0 min 46 W/m 11,3 km/h (2 Bft) 95,65 %
10.04.2018 11:46 16,8 C 18,3 C 18,3 C 69 % 0 lf 1002,9 hPa 0,0 l/m 0 min 0 min 46 W/m 9,0 km/h (2 Bft) 95,74 %
10.04.2018 11:48 16,8 C 17,8 C 18,3 C 69 % 0 lf 1002,9 hPa 0,0 l/m 0 min 0 min 46 W/m 9,0 km/h (2 Bft) 97,87 %
10.04.2018 11:50 16,8 C 18,3 C 18,3 C 70 % 0 lf 1003,0 hPa 0,0 l/m 0 min 0 min 47 W/m 13,5 km/h (3 Bft) 96,61 %
10.04.2018 11:52 16,9 C 18,9 C 18,3 C 70 % 0 lf 1003,0 hPa 0,0 l/m 0 min 0 min 47 W/m 9,0 km/h (2 Bft) 97,14 %
10.04.2018 11:54 16,9 C 19,4 C 18,3 C 69 % 0 lf 1003,0 hPa 0,0 l/m 0 min 0 min 49 W/m 9,0 km/h (2 Bft) 97,87 %
10.04.2018 11:56 16,9 C 19,4 C 18,3 C 69 % 0 lf 1003,0 hPa 0,0 l/m 0 min 0 min 50 W/m 9,0 km/h (2 Bft) 97,83 %
10.04.2018 11:58 16,9 C 19,4 C 18,3 C 69 % 0 lf 1002,9 hPa 0,0 l/m 0 min 0 min 51 W/m 11,3 km/h (2 Bft) 97,87 %
10.04.2018 12:00 17,0 C 19,4 C 18,9 C 69 % 0 lf 1002,9 hPa 0,0 l/m 0 min 0 min 52 W/m 11,3 km/h (2 Bft) 97,87 %
10.04.2018 12:02 17,0 C 18,9 C 18,9 C 69 % 0 lf 1002,9 hPa 0,0 l/m 0 min 0 min 53 W/m 9,0 km/h (2 Bft) 91,49 %
10.04.2018 12:04 17,1 C 18,3 C 18,9 C 68 % 0 lf 1002,9 hPa 0,0 l/m 0 min 0 min 53 W/m 15,8 km/h (3 Bft) 97,87 %
10.04.2018 12:08 17,1 C 18,9 C 19,4 C 67 % 0 lf 1002,9 hPa 0,0 l/m 0 min 0 min 55 W/m 13,5 km/h (3 Bft) 97,09 %
10.04.2018 12:10 17,1 C 18,9 C 19,4 C 67 % 0 lf 1002,9 hPa 0,0 l/m 0 min 0 min 59 W/m 9,0 km/h (2 Bft) 95,74 %
10.04.2018 12:12 17,2 C 19,4 C 19,4 C 67 % 0 lf 1002,9 hPa 0,0 l/m 0 min 0 min 60 W/m 11,3 km/h (2 Bft) 97,83 %
10.04.2018 12:14 17,2 C 20,6 C 20,0 C 68 % 0 lf 1002,9 hPa 0,0 l/m 0 min 0 min 63 W/m 6,8 km/h (2 Bft) 93,62 %
10.04.2018 12:16 17,2 C 20,0 C 20,0 C 67 % 0 lf 1002,9 hPa 0,0 l/m 0 min 0 min 64 W/m 9,0 km/h (2 Bft) 95,74 %
10.04.2018 12:18 17,2 C 20,0 C 20,0 C 66 % 0 lf 1002,9 hPa 0,0 l/m 0 min 0 min 64 W/m 11,3 km/h (2 Bft) 100,00 %
10.04.2018 12:20 17,3 C 20,0 C 20,6 C 66 % 0 lf 1002,9 hPa 0,0 l/m 0 min 0 min 63 W/m 6,8 km/h (2 Bft) 97,87 %
10.04.2018 12:22 17,3 C 20,0 C 20,6 C 66 % 0 lf 1002,9 hPa 0,0 l/m 0 min 0 min 63 W/m 13,5 km/h (3 Bft) 100,00 %
10.04.2018 12:24 17,3 C 20,0 C 20,6 C 66 % 0 lf 1002,9 hPa 0,0 l/m 0 min 0 min 67 W/m 9,0 km/h (2 Bft) 100,00 %
10.04.2018 12:26 17,4 C 20,0 C 20,6 C 66 % 0 lf 1002,9 hPa 0,0 l/m 0 min 0 min 68 W/m 13,5 km/h (3 Bft) 97,87 %
10.04.2018 12:28 17,4 C 20,6 C 20,6 C 65 % 0 lf 1003,0 hPa 0,0 l/m 0 min 0 min 69 W/m 9,0 km/h (2 Bft) 100,00 %
10.04.2018 12:30 17,5 C 20,6 C 20,6 C 66 % 0 lf 1003,0 hPa 0,0 l/m 0 min 0 min 68 W/m 9,0 km/h (2 Bft) 97,87 %
10.04.2018 12:32 17,6 C 21,1 C 21,1 C 66 % 0 lf 1003,0 hPa 0,0 l/m 0 min 0 min 70 W/m 13,5 km/h (3 Bft) 100,00 %
10.04.2018 12:34 17,7 C 21,1 C 21,1 C 66 % 0 lf 1003,0 hPa 0,0 l/m 0 min 0 min 66 W/m 6,8 km/h (2 Bft) 100,00 %
10.04.2018 12:38 17,8 C 20,6 C 21,1 C 65 % 0 lf 1003,0 hPa 0,0 l/m 0 min 0 min 67 W/m 9,0 km/h (2 Bft) 100,00 %
10.04.2018 12:40 17,8 C 20,6 C 21,1 C 65 % 0 lf 1003,0 hPa 0,0 l/m 0 min 0 min 80 W/m 9,0 km/h (2 Bft) 100,00 %
10.04.2018 12:42 17,9 C 21,1 C 20,6 C 66 % 0 lf 1003,0 hPa 0,0 l/m 0 min 0 min 80 W/m 15,8 km/h (3 Bft) 95,74 %
10.04.2018 12:44 17,9 C 21,7 C 21,1 C 66 % 0 lf 1003,0 hPa 0,0 l/m 0 min 0 min 90 W/m 15,8 km/h (3 Bft) 97,87 %
10.04.2018 12:46 18,0 C 21,7 C 21,1 C 66 % 0 lf 1003,0 hPa 0,0 l/m 0 min 0 min 88 W/m 9,0 km/h (2 Bft) 100,00 %
10.04.2018 12:48 18,1 C 21,7 C 21,7 C 66 % 0 lf 1003,0 hPa 0,0 l/m 0 min 0 min 91 W/m 11,3 km/h (2 Bft) 100,00 %
10.04.2018 12:50 18,1 C 21,7 C 21,7 C 65 % 0 lf 1003,0 hPa 0,0 l/m 0 min 0 min 92 W/m 9,0 km/h (2 Bft) 97,87 %
10.04.2018 12:52 18,2 C 21,7 C 22,2 C 66 % 0 lf 1003,0 hPa 0,0 l/m 0 min 0 min 89 W/m 6,8 km/h (2 Bft) 100,00 %
10.04.2018 12:54 18,2 C 21,7 C 22,2 C 65 % 0 lf 1003,0 hPa 0,0 l/m 0 min 0 min 88 W/m 15,8 km/h (3 Bft) 97,87 %
10.04.2018 12:56 18,3 C 21,1 C 21,7 C 65 % 0 lf 1003,0 hPa 0,0 l/m 0 min 0 min 82 W/m 15,8 km/h (3 Bft) 100,00 %
10.04.2018 12:58 18,3 C 20,6 C 21,1 C 64 % 0 lf 1003,0 hPa 0,0 l/m 0 min 0 min 75 W/m 11,3 km/h (2 Bft) 95,74 %
10.04.2018 13:00 18,3 C 21,1 C 21,1 C 65 % 0 lf 1002,9 hPa 0,0 l/m 0 min 0 min 66 W/m 9,0 km/h (2 Bft) 95,65 %
10.04.2018 13:02 18,3 C 21,1 C 21,1 C 66 % 0 lf 1003,0 hPa 0,0 l/m 0 min 0 min 65 W/m 11,3 km/h (2 Bft) 93,62 %
10.04.2018 13:04 18,4 C 20,0 C 21,1 C 65 % 0 lf 1003,0 hPa 0,0 l/m 0 min 0 min 68 W/m 13,5 km/h (3 Bft) 95,74 %
10.04.2018 13:08 18,4 C 21,1 C 21,1 C 65 % 0 lf 1003,0 hPa 0,0 l/m 0 min 0 min 74 W/m 13,5 km/h (3 Bft) 94,68 %
10.04.2018 13:10 18,4 C 20,6 C 21,1 C 65 % 0 lf 1002,9 hPa 0,0 l/m 0 min 0 min 70 W/m 11,3 km/h (2 Bft) 94,29 %
10.04.2018 13:12 18,4 C 20,0 C 21,1 C 65 % 0 lf 1003,0 hPa 0,0 l/m 0 min 0 min 71 W/m 11,3 km/h (2 Bft) 96,72 %
10.04.2018 13:14 18,4 C 20,6 C 21,1 C 65 % 0 lf 1003,0 hPa 0,0 l/m 0 min 0 min 75 W/m 15,8 km/h (3 Bft) 93,62 %
10.04.2018 13:16 18,4 C 22,2 C 21,1 C 65 % 0 lf 1003,0 hPa 0,0 l/m 0 min 0 min 93 W/m 9,0 km/h (2 Bft) 95,65 %
10.04.2018 13:18 18,5 C 22,8 C 21,1 C 65 % 0 lf 1003,0 hPa 0,0 l/m 0 min 0 min 87 W/m 6,8 km/h (2 Bft) 95,74 %
10.04.2018 13:20 18,5 C 21,1 C 21,1 C 63 % 0 lf 1002,9 hPa 0,0 l/m 0 min 0 min 78 W/m 13,5 km/h (3 Bft) 95,74 %
10.04.2018 13:22 18,5 C 20,6 C 21,1 C 63 % 0 lf 1002,9 hPa 0,0 l/m 0 min 0 min 67 W/m 13,5 km/h (3 Bft) 93,62 %
10.04.2018 13:24 18,5 C 21,1 C 21,1 C 63 % 0 lf 1002,8 hPa 0,0 l/m 0 min 0 min 96 W/m 13,5 km/h (3 Bft) 93,62 %
10.04.2018 13:26 18,5 C 22,2 C 21,1 C 63 % 0 lf 1002,8 hPa 0,0 l/m 0 min 0 min 109 W/m 11,3 km/h (2 Bft) 93,48 %
10.04.2018 13:28 18,5 C 21,7 C 21,1 C 63 % 0 lf 1002,9 hPa 0,0 l/m 0 min 0 min 104 W/m 18,0 km/h (3 Bft) 97,87 %
10.04.2018 13:30 18,6 C 21,1 C 21,1 C 63 % 0 lf 1002,9 hPa 0,0 l/m 0 min 0 min 72 W/m 9,0 km/h (2 Bft) 95,74 %
10.04.2018 13:32 18,6 C 21,1 C 21,1 C 63 % 0 lf 1002,8 hPa 0,0 l/m 0 min 0 min 64 W/m 9,0 km/h (2 Bft) 93,62 %
10.04.2018 13:34 18,6 C 20,0 C 21,1 C 63 % 0 lf 1002,8 hPa 0,0 l/m 0 min 0 min 57 W/m 15,8 km/h (3 Bft) 95,74 %
10.04.2018 13:38 18,5 C 19,4 C 20,6 C 63 % 0 lf 1002,9 hPa 0,0 l/m 0 min 0 min 54 W/m 13,5 km/h (3 Bft) 93,55 %
10.04.2018 13:40 18,5 C 19,4 C 20,6 C 63 % 0 lf 1002,8 hPa 0,0 l/m 0 min 0 min 55 W/m 13,5 km/h (3 Bft) 91,49 %
10.04.2018 13:42 18,5 C 19,4 C 20,6 C 63 % 0 lf 1002,9 hPa 0,0 l/m 0 min 0 min 55 W/m 9,0 km/h (2 Bft) 91,49 %
10.04.2018 13:44 18,5 C 20,0 C 20,6 C 64 % 1 lf 1002,8 hPa 0,0 l/m 0 min 0 min 53 W/m 9,0 km/h (2 Bft) 93,62 %
10.04.2018 13:46 18,6 C 19,4 C 20,0 C 63 % 0 lf 1002,9 hPa 0,0 l/m 0 min 0 min 52 W/m 15,8 km/h (3 Bft) 91,49 %
10.04.2018 13:48 18,5 C 19,4 C 20,0 C 63 % 0 lf 1002,9 hPa 0,0 l/m 0 min 0 min 51 W/m 13,5 km/h (3 Bft) 95,74 %
10.04.2018 13:50 18,5 C 19,4 C 20,0 C 63 % 0 lf 1002,8 hPa 0,0 l/m 0 min 0 min 51 W/m 13,5 km/h (3 Bft) 89,13 %
10.04.2018 13:52 18,5 C 20,0 C 20,0 C 63 % 0 lf 1002,8 hPa 0,0 l/m 0 min 0 min 54 W/m 11,3 km/h (2 Bft) 95,74 %
10.04.2018 13:54 18,5 C 20,6 C 20,0 C 63 % 0 lf 1002,8 hPa 0,0 l/m 0 min 0 min 56 W/m 13,5 km/h (3 Bft) 95,74 %
10.04.2018 13:56 18,5 C 20,6 C 20,6 C 64 % 0 lf 1002,8 hPa 0,0 l/m 0 min 0 min 60 W/m 11,3 km/h (2 Bft) 100,00 %
10.04.2018 13:58 18,5 C 20,6 C 20,6 C 64 % 0 lf 1002,8 hPa 0,0 l/m 0 min 0 min 66 W/m 13,5 km/h (3 Bft) 95,74 %
10.04.2018 14:00 18,6 C 20,6 C 20,6 C 64 % 0 lf 1002,8 hPa 0,0 l/m 0 min 0 min 68 W/m 11,3 km/h (2 Bft) 95,74 %
10.04.2018 14:02 18,6 C 20,6 C 20,6 C 64 % 0 lf 1002,8 hPa 0,0 l/m 0 min 0 min 71 W/m 18,0 km/h (3 Bft) 97,83 %
10.04.2018 14:04 18,6 C 20,6 C 20,6 C 64 % 0 lf 1002,8 hPa 0,0 l/m 0 min 0 min 64 W/m 18,0 km/h (3 Bft) 97,87 %
10.04.2018 14:08 18,6 C 20,0 C 20,6 C 63 % 0 lf 1002,8 hPa 0,0 l/m 0 min 0 min 62 W/m 18,0 km/h (3 Bft) 92,55 %
10.04.2018 14:10 18,6 C 20,6 C 21,1 C 64 % 0 lf 1002,8 hPa 0,0 l/m 0 min 0 min 63 W/m 15,8 km/h (3 Bft) 95,74 %
10.04.2018 14:12 18,6 C 20,0 C 21,1 C 63 % 0 lf 1002,7 hPa 0,0 l/m 0 min 0 min 65 W/m 9,0 km/h (2 Bft) 95,74 %
10.04.2018 14:14 18,6 C 20,6 C 21,1 C 63 % 0 lf 1002,7 hPa 0,0 l/m 0 min 0 min 60 W/m 11,3 km/h (2 Bft) 95,65 %
10.04.2018 14:16 18,6 C 21,1 C 21,1 C 63 % 0 lf 1002,8 hPa 0,0 l/m 0 min 0 min 55 W/m 9,0 km/h (2 Bft) 93,62 %
10.04.2018 14:18 18,6 C 20,6 C 20,6 C 63 % 0 lf 1002,7 hPa 0,0 l/m 0 min 0 min 54 W/m 13,5 km/h (3 Bft) 95,74 %
10.04.2018 14:20 18,6 C 20,0 C 20,6 C 62 % 0 lf 1002,8 hPa 0,0 l/m 0 min 0 min 53 W/m 11,3 km/h (2 Bft) 93,62 %
10.04.2018 14:22 18,6 C 20,0 C 20,6 C 61 % 0 lf 1002,8 hPa 0,0 l/m 0 min 0 min 51 W/m 11,3 km/h (2 Bft) 93,62 %
10.04.2018 14:24 18,6 C 19,4 C 20,0 C 60 % 0 lf 1002,8 hPa 0,0 l/m 0 min 0 min 47 W/m 6,8 km/h (2 Bft) 95,74 %
10.04.2018 14:26 18,6 C 19,4 C 20,0 C 61 % 0 lf 1002,8 hPa 0,0 l/m 0 min 0 min 46 W/m 11,3 km/h (2 Bft) 95,65 %
10.04.2018 14:28 18,6 C 20,0 C 20,0 C 61 % 0 lf 1002,8 hPa 0,0 l/m 0 min 0 min 46 W/m 9,0 km/h (2 Bft) 97,87 %
10.04.2018 14:30 18,7 C 19,4 C 20,0 C 61 % 0 lf 1002,8 hPa 0,0 l/m 0 min 0 min 46 W/m 11,3 km/h (2 Bft) 93,62 %
10.04.2018 14:32 18,7 C 19,4 C 20,0 C 62 % 0 lf 1002,8 hPa 0,0 l/m 0 min 0 min 46 W/m 11,3 km/h (2 Bft) 91,49 %
10.04.2018 14:34 18,7 C 19,4 C 20,0 C 62 % 0 lf 1002,8 hPa 0,0 l/m 0 min 0 min 46 W/m 6,8 km/h (2 Bft) 91,49 %
10.04.2018 14:38 18,7 C 20,6 C 20,0 C 63 % 0 lf 1002,7 hPa 0,0 l/m 0 min 0 min 46 W/m 11,3 km/h (2 Bft) 96,77 %
10.04.2018 14:40 18,8 C 21,1 C 20,0 C 63 % 0 lf 1002,7 hPa 0,0 l/m 0 min 0 min 47 W/m 11,3 km/h (2 Bft) 95,74 %
10.04.2018 14:42 18,8 C 21,1 C 20,0 C 63 % 0 lf 1002,7 hPa 0,0 l/m 0 min 0 min 49 W/m 9,0 km/h (2 Bft) 97,14 %
10.04.2018 14:44 18,8 C 21,1 C 19,4 C 61 % 0 lf 1002,6 hPa 0,0 l/m 0 min 0 min 51 W/m 6,8 km/h (2 Bft) 98,31 %
10.04.2018 14:46 18,8 C 21,1 C 19,4 C 62 % 0 lf 1002,6 hPa 0,0 l/m 0 min 0 min 53 W/m 6,8 km/h (2 Bft) 97,92 %
10.04.2018 14:48 18,8 C 21,7 C 19,4 C 62 % 0 lf 1002,6 hPa 0,0 l/m 0 min 0 min 52 W/m 4,5 km/h (1 Bft) 95,65 %
10.04.2018 14:50 18,8 C 20,6 C 20,0 C 62 % 0 lf 1002,5 hPa 0,0 l/m 0 min 0 min 50 W/m 4,5 km/h (1 Bft) 97,87 %
10.04.2018 14:52 18,8 C 20,6 C 20,0 C 62 % 0 lf 1002,4 hPa 0,0 l/m 0 min 0 min 49 W/m 9,0 km/h (2 Bft) 95,74 %
10.04.2018 14:54 18,8 C 21,1 C 20,0 C 62 % 0 lf 1002,4 hPa 0,0 l/m 0 min 0 min 47 W/m 9,0 km/h (2 Bft) 100,00 %
10.04.2018 14:56 18,8 C 20,6 C 20,0 C 61 % 0 lf 1002,3 hPa 0,0 l/m 0 min 0 min 47 W/m 4,5 km/h (1 Bft) 97,14 %
10.04.2018 14:58 18,8 C 21,1 C 20,0 C 61 % 0 lf 1002,3 hPa 0,0 l/m 0 min 0 min 47 W/m 4,5 km/h (1 Bft) 98,31 %
10.04.2018 15:00 18,8 C 21,7 C 20,0 C 61 % 0 lf 1002,4 hPa 0,0 l/m 0 min 0 min 48 W/m 4,5 km/h (1 Bft) 95,65 %
10.04.2018 15:02 18,8 C 21,7 C 20,0 C 61 % 0 lf 1002,4 hPa 0,0 l/m 0 min 0 min 49 W/m 4,5 km/h (1 Bft) 100,00 %
10.04.2018 15:04 18,9 C 21,1 C 20,0 C 61 % 0 lf 1002,4 hPa 0,0 l/m 0 min 0 min 49 W/m 6,8 km/h (2 Bft) 100,00 %
10.04.2018 15:08 18,9 C 21,1 C 20,0 C 61 % 0 lf 1002,4 hPa 0,0 l/m 0 min 0 min 46 W/m 9,0 km/h (2 Bft) 97,87 %
10.04.2018 15:10 18,9 C 21,1 C 20,0 C 61 % 0 lf 1002,4 hPa 0,0 l/m 0 min 0 min 44 W/m 6,8 km/h (2 Bft) 95,74 %
10.04.2018 15:12 18,9 C 21,1 C 19,4 C 61 % 0 lf 1002,4 hPa 0,0 l/m 0 min 0 min 44 W/m 11,3 km/h (2 Bft) 95,65 %
10.04.2018 15:14 18,9 C 20,6 C 19,4 C 61 % 0 lf 1002,4 hPa 0,0 l/m 0 min 0 min 45 W/m 11,3 km/h (2 Bft) 100,00 %
10.04.2018 15:16 18,9 C 20,6 C 19,4 C 61 % 0 lf 1002,3 hPa 0,0 l/m 0 min 0 min 46 W/m 11,3 km/h (2 Bft) 97,87 %
10.04.2018 15:18 18,9 C 20,6 C 19,4 C 61 % 0 lf 1002,4 hPa 0,0 l/m 0 min 2 min 46 W/m 9,0 km/h (2 Bft) 100,00 %
10.04.2018 15:20 18,9 C 20,6 C 18,9 C 61 % 0 lf 1002,3 hPa 0,0 l/m 0 min 0 min 44 W/m 9,0 km/h (2 Bft) 100,00 %
10.04.2018 15:22 18,9 C 20,6 C 18,9 C 61 % 0 lf 1002,3 hPa 0,0 l/m 0 min 0 min 44 W/m 9,0 km/h (2 Bft) 97,87 %
10.04.2018 15:24 18,9 C 20,6 C 18,9 C 61 % 0 lf 1002,3 hPa 0,0 l/m 0 min 0 min 44 W/m 11,3 km/h (2 Bft) 97,83 %
10.04.2018 15:26 18,9 C 20,6 C 18,9 C 61 % 0 lf 1002,3 hPa 0,0 l/m 0 min 0 min 45 W/m 9,0 km/h (2 Bft) 95,74 %
10.04.2018 15:28 18,8 C 20,6 C 18,9 C 60 % 0 lf 1002,3 hPa 0,0 l/m 0 min 0 min 46 W/m 9,0 km/h (2 Bft) 97,87 %
10.04.2018 15:30 18,8 C 21,1 C 19,4 C 61 % 0 lf 1002,3 hPa 0,0 l/m 0 min 2 min 47 W/m 4,5 km/h (1 Bft) 95,74 %
10.04.2018 15:32 18,8 C 21,1 C 19,4 C 61 % 0 lf 1002,3 hPa 0,0 l/m 0 min 0 min 47 W/m 11,3 km/h (2 Bft) 97,87 %
10.04.2018 15:34 18,8 C 21,7 C 20,0 C 62 % 0 lf 1002,3 hPa 0,0 l/m 0 min 0 min 45 W/m 6,8 km/h (2 Bft) 97,87 %
10.04.2018 15:38 18,9 C 21,7 C 20,0 C 62 % 0 lf 1002,2 hPa 0,0 l/m 0 min 0 min 43 W/m 13,5 km/h (3 Bft) 96,77 %
10.04.2018 15:40 18,9 C 21,7 C 20,0 C 62 % 0 lf 1002,3 hPa 0,0 l/m 0 min 0 min 46 W/m 11,3 km/h (2 Bft) 97,87 %
10.04.2018 15:42 18,9 C 21,7 C 20,0 C 62 % 0 lf 1002,3 hPa 0,0 l/m 0 min 0 min 51 W/m 11,3 km/h (2 Bft) 91,49 %
10.04.2018 15:44 19,0 C 21,7 C 20,6 C 62 % 0 lf 1002,3 hPa 0,0 l/m 0 min 0 min 53 W/m 15,8 km/h (3 Bft) 95,74 %
10.04.2018 15:46 19,1 C 22,2 C 20,6 C 63 % 0 lf 1002,3 hPa 0,0 l/m 0 min 0 min 60 W/m 13,5 km/h (3 Bft) 97,87 %
10.04.2018 15:48 19,1 C 22,2 C 21,1 C 62 % 0 lf 1002,3 hPa 0,0 l/m 0 min 0 min 64 W/m 11,3 km/h (2 Bft) 97,83 %
10.04.2018 15:50 19,2 C 21,1 C 21,1 C 61 % 0 lf 1002,2 hPa 0,0 l/m 0 min 0 min 61 W/m 6,8 km/h (2 Bft) 97,87 %
10.04.2018 15:52 19,2 C 22,2 C 21,7 C 62 % 0 lf 1002,2 hPa 0,0 l/m 0 min 0 min 57 W/m 9,0 km/h (2 Bft) 97,87 %
10.04.2018 15:54 19,2 C 21,7 C 21,1 C 61 % 0 lf 1002,1 hPa 0,0 l/m 0 min 0 min 56 W/m 11,3 km/h (2 Bft) 97,87 %
10.04.2018 15:56 19,3 C 22,2 C 20,6 C 60 % 0 lf 1002,2 hPa 0,0 l/m 0 min 0 min 56 W/m 9,0 km/h (2 Bft) 97,87 %
10.04.2018 15:58 19,3 C 21,7 C 20,6 C 60 % 4 lf 1002,1 hPa 0,0 l/m 0 min 0 min 59 W/m 15,8 km/h (3 Bft) 100,00 %
10.04.2018 16:00 19,3 C 22,2 C 20,6 C 60 % 0 lf 1002,1 hPa 0,0 l/m 0 min 2 min 62 W/m 9,0 km/h (2 Bft) 100,00 %
10.04.2018 16:02 19,3 C 22,2 C 20,6 C 60 % 0 lf 1002,0 hPa 0,0 l/m 0 min 0 min 66 W/m 13,5 km/h (3 Bft) 97,14 %
10.04.2018 16:04 19,3 C 22,8 C 20,6 C 59 % 0 lf 1002,0 hPa 0,0 l/m 0 min 0 min 76 W/m 11,3 km/h (2 Bft) 98,31 %
10.04.2018 16:08 19,4 C 25,0 C 21,1 C 60 % 0 lf 1001,9 hPa 0,0 l/m 0 min 0 min 88 W/m 13,5 km/h (3 Bft) 97,87 %
10.04.2018 16:10 19,4 C 26,1 C 21,1 C 60 % 0 lf 1002,0 hPa 0,0 l/m 0 min 0 min 94 W/m 15,8 km/h (3 Bft) 95,65 %
10.04.2018 16:12 19,6 C 26,7 C 21,7 C 60 % 0 lf 1002,0 hPa 0,0 l/m 0 min 0 min 96 W/m 11,3 km/h (2 Bft) 95,74 %
10.04.2018 16:14 19,7 C 26,7 C 22,2 C 60 % 0 lf 1001,9 hPa 0,0 l/m 0 min 0 min 89 W/m 13,5 km/h (3 Bft) 95,74 %
10.04.2018 16:16 19,7 C 26,1 C 21,7 C 60 % 0 lf 1001,9 hPa 0,0 l/m 0 min 0 min 87 W/m 11,3 km/h (2 Bft) 95,74 %
10.04.2018 16:18 19,8 C 25,0 C 21,1 C 58 % 0 lf 1001,9 hPa 0,0 l/m 0 min 0 min 76 W/m 11,3 km/h (2 Bft) 97,14 %
10.04.2018 16:20 19,8 C 25,0 C 21,7 C 58 % 0 lf 1001,9 hPa 0,0 l/m 0 min 0 min 62 W/m 6,8 km/h (2 Bft) 98,31 %
10.04.2018 16:22 19,9 C 23,9 C 21,7 C 59 % 0 lf 1001,9 hPa 0,0 l/m 0 min 0 min 54 W/m 11,3 km/h (2 Bft) 95,65 %
10.04.2018 16:24 20,0 C 23,9 C 21,7 C 59 % 0 lf 1001,9 hPa 0,0 l/m 0 min 0 min 52 W/m 9,0 km/h (2 Bft) 97,87 %
10.04.2018 16:26 20,0 C 23,3 C 21,7 C 58 % 0 lf 1001,9 hPa 0,0 l/m 0 min 0 min 53 W/m 11,3 km/h (2 Bft) 95,74 %
10.04.2018 16:28 20,1 C 22,8 C 21,1 C 57 % 0 lf 1001,8 hPa 0,0 l/m 0 min 0 min 54 W/m 11,3 km/h (2 Bft) 97,87 %
10.04.2018 16:30 20,1 C 22,8 C 21,1 C 57 % 0 lf 1001,8 hPa 0,0 l/m 0 min 0 min 54 W/m 9,0 km/h (2 Bft) 97,87 %
10.04.2018 16:32 20,1 C 22,8 C 21,1 C 57 % 0 lf 1001,7 hPa 0,0 l/m 0 min 0 min 53 W/m 11,3 km/h (2 Bft) 95,74 %
10.04.2018 16:34 20,1 C 22,8 C 21,1 C 57 % 0 lf 1001,7 hPa 0,0 l/m 0 min 0 min 54 W/m 9,0 km/h (2 Bft) 100,00 %
10.04.2018 16:38 20,1 C 22,8 C 21,1 C 57 % 0 lf 1001,7 hPa 0,0 l/m 0 min 4 min 54 W/m 15,8 km/h (3 Bft) 96,81 %
10.04.2018 16:40 20,1 C 22,8 C 21,1 C 57 % 0 lf 1001,7 hPa 0,0 l/m 0 min 0 min 55 W/m 11,3 km/h (2 Bft) 95,74 %
10.04.2018 16:42 20,1 C 23,3 C 21,1 C 58 % 0 lf 1001,7 hPa 0,0 l/m 0 min 0 min 54 W/m 6,8 km/h (2 Bft) 93,62 %
10.04.2018 16:44 20,1 C 23,3 C 21,1 C 57 % 0 lf 1001,7 hPa 0,0 l/m 0 min 2 min 51 W/m 6,8 km/h (2 Bft) 93,62 %
10.04.2018 16:46 20,1 C 23,3 C 21,1 C 57 % 0 lf 1001,7 hPa 0,0 l/m 0 min 0 min 48 W/m 6,8 km/h (2 Bft) 95,65 %
10.04.2018 16:48 20,1 C 22,8 C 21,1 C 57 % 0 lf 1001,7 hPa 0,0 l/m 0 min 0 min 47 W/m 9,0 km/h (2 Bft) 93,62 %
10.04.2018 16:50 20,2 C 22,2 C 20,6 C 57 % 0 lf 1001,7 hPa 0,0 l/m 0 min 0 min 46 W/m 11,3 km/h (2 Bft) 91,49 %
10.04.2018 16:52 20,2 C 22,2 C 20,6 C 57 % 0 lf 1001,7 hPa 0,0 l/m 0 min 0 min 48 W/m 9,0 km/h (2 Bft) 91,49 %
10.04.2018 16:54 20,2 C 22,8 C 20,6 C 57 % 0 lf 1001,6 hPa 0,0 l/m 0 min 0 min 48 W/m 9,0 km/h (2 Bft) 93,62 %
10.04.2018 16:56 20,2 C 22,8 C 21,1 C 57 % 0 lf 1001,6 hPa 0,0 l/m 0 min 0 min 47 W/m 6,8 km/h (2 Bft) 95,74 %
10.04.2018 16:58 20,2 C 22,8 C 21,1 C 57 % 0 lf 1001,6 hPa 0,0 l/m 0 min 0 min 49 W/m 6,8 km/h (2 Bft) 95,65 %
10.04.2018 17:00 20,2 C 22,8 C 21,1 C 58 % 0 lf 1001,6 hPa 0,0 l/m 0 min 0 min 49 W/m 11,3 km/h (2 Bft) 94,44 %
10.04.2018 17:02 20,2 C 22,8 C 21,1 C 58 % 0 lf 1001,6 hPa 0,0 l/m 0 min 0 min 49 W/m 11,3 km/h (2 Bft) 96,55 %
10.04.2018 17:04 20,2 C 22,8 C 21,1 C 58 % 0 lf 1001,6 hPa 0,0 l/m 0 min 0 min 46 W/m 11,3 km/h (2 Bft) 91,49 %
10.04.2018 17:08 20,3 C 22,8 C 21,1 C 57 % 0 lf 1001,6 hPa 0,0 l/m 0 min 0 min 46 W/m 9,0 km/h (2 Bft) 93,62 %
10.04.2018 17:10 20,3 C 22,8 C 21,1 C 59 % 0 lf 1001,6 hPa 0,0 l/m 0 min 0 min 46 W/m 11,3 km/h (2 Bft) 95,65 %
10.04.2018 17:12 20,3 C 22,8 C 21,1 C 57 % 0 lf 1001,6 hPa 0,0 l/m 0 min 0 min 46 W/m 13,5 km/h (3 Bft) 95,74 %
10.04.2018 17:14 20,4 C 22,8 C 20,6 C 57 % 0 lf 1001,6 hPa 0,0 l/m 0 min 0 min 46 W/m 11,3 km/h (2 Bft) 93,62 %
10.04.2018 17:16 20,4 C 22,8 C 21,1 C 57 % 0 lf 1001,6 hPa 0,0 l/m 0 min 0 min 45 W/m 9,0 km/h (2 Bft) 94,29 %
10.04.2018 17:18 20,4 C 22,2 C 20,6 C 57 % 0 lf 1001,6 hPa 0,0 l/m 0 min 0 min 44 W/m 6,8 km/h (2 Bft) 96,61 %
10.04.2018 17:20 20,4 C 22,8 C 21,1 C 57 % 0 lf 1001,6 hPa 0,0 l/m 0 min 0 min 44 W/m 9,0 km/h (2 Bft) 93,48 %
10.04.2018 17:22 20,4 C 22,8 C 21,1 C 58 % 0 lf 1001,6 hPa 0,0 l/m 0 min 0 min 44 W/m 9,0 km/h (2 Bft) 93,62 %
10.04.2018 17:24 20,4 C 22,8 C 21,1 C 57 % 0 lf 1001,7 hPa 0,0 l/m 0 min 0 min 44 W/m 9,0 km/h (2 Bft) 95,74 %
10.04.2018 17:26 20,4 C 22,8 C 21,1 C 57 % 0 lf 1001,6 hPa 0,0 l/m 0 min 0 min 41 W/m 9,0 km/h (2 Bft) 100,00 %
10.04.2018 17:28 20,4 C 22,2 C 20,6 C 58 % 0 lf 1001,6 hPa 0,0 l/m 0 min 0 min 37 W/m 11,3 km/h (2 Bft) 93,22 %
10.04.2018 17:30 20,4 C 22,2 C 20,6 C 58 % 0 lf 1001,6 hPa 0,0 l/m 0 min 0 min 34 W/m 9,0 km/h (2 Bft) 93,62 %
10.04.2018 17:32 20,5 C 22,2 C 20,6 C 58 % 0 lf 1001,6 hPa 0,0 l/m 0 min 0 min 33 W/m 6,8 km/h (2 Bft) 93,48 %
10.04.2018 17:34 20,5 C 21,7 C 20,6 C 58 % 0 lf 1001,6 hPa 0,0 l/m 0 min 0 min 30 W/m 4,5 km/h (1 Bft) 95,74 %
10.04.2018 17:38 20,4 C 21,1 C 20,0 C 58 % 0 lf 1001,6 hPa 0,0 l/m 0 min 0 min 26 W/m 11,3 km/h (2 Bft) 95,74 %
10.04.2018 17:40 20,4 C 21,1 C 20,0 C 58 % 0 lf 1001,6 hPa 0,0 l/m 0 min 0 min 24 W/m 11,3 km/h (2 Bft) 93,62 %
10.04.2018 17:42 20,4 C 20,6 C 19,4 C 59 % 0 lf 1001,6 hPa 0,0 l/m 0 min 0 min 23 W/m 6,8 km/h (2 Bft) 88,57 %
10.04.2018 17:44 20,3 C 20,6 C 19,4 C 59 % 0 lf 1001,6 hPa 0,0 l/m 0 min 0 min 22 W/m 6,8 km/h (2 Bft) 96,55 %
10.04.2018 17:46 20,3 C 20,6 C 19,4 C 59 % 0 lf 1001,6 hPa 0,0 l/m 0 min 0 min 20 W/m 9,0 km/h (2 Bft) 95,74 %
10.04.2018 17:48 20,3 C 20,6 C 18,9 C 57 % 0 lf 1001,5 hPa 0,0 l/m 0 min 0 min 19 W/m 9,0 km/h (2 Bft) 95,74 %
10.04.2018 17:50 20,3 C 20,6 C 18,9 C 57 % 0 lf 1001,6 hPa 0,0 l/m 0 min 0 min 18 W/m 9,0 km/h (2 Bft) 95,74 %
10.04.2018 17:52 20,2 C 20,0 C 18,9 C 57 % 0 lf 1001,5 hPa 0,0 l/m 0 min 0 min 18 W/m 11,3 km/h (2 Bft) 95,74 %
10.04.2018 17:54 20,2 C 20,0 C 18,3 C 57 % 0 lf 1001,6 hPa 0,0 l/m 0 min 0 min 18 W/m 11,3 km/h (2 Bft) 93,62 %
10.04.2018 17:56 20,2 C 20,0 C 18,3 C 57 % 0 lf 1001,6 hPa 0,0 l/m 0 min 0 min 19 W/m 6,8 km/h (2 Bft) 97,83 %
10.04.2018 17:58 20,1 C 20,0 C 18,3 C 57 % 0 lf 1001,6 hPa 0,0 l/m 0 min 0 min 19 W/m 9,0 km/h (2 Bft) 95,74 %
10.04.2018 18:00 20,1 C 20,0 C 18,3 C 57 % 0 lf 1001,5 hPa 0,0 l/m 0 min 0 min 19 W/m 6,8 km/h (2 Bft) 95,74 %
10.04.2018 18:02 20,1 C 20,0 C 18,3 C 57 % 0 lf 1001,6 hPa 0,0 l/m 0 min 0 min 19 W/m 9,0 km/h (2 Bft) 97,87 %
10.04.2018 18:04 20,0 C 20,0 C 18,3 C 58 % 0 lf 1001,6 hPa 0,0 l/m 0 min 0 min 19 W/m 9,0 km/h (2 Bft) 97,87 %
10.04.2018 18:08 19,9 C 20,0 C 18,3 C 58 % 0 lf 1001,6 hPa 0,0 l/m 0 min 0 min 19 W/m 9,0 km/h (2 Bft) 98,86 %
10.04.2018 18:10 19,9 C 20,0 C 18,3 C 58 % 0 lf 1001,5 hPa 0,0 l/m 0 min 0 min 19 W/m 9,0 km/h (2 Bft) 100,00 %
10.04.2018 18:12 19,8 C 20,0 C 18,3 C 59 % 0 lf 1001,5 hPa 0,0 l/m 0 min 0 min 21 W/m 9,0 km/h (2 Bft) 100,00 %
10.04.2018 18:14 19,8 C 20,0 C 18,9 C 59 % 0 lf 1001,5 hPa 0,0 l/m 0 min 0 min 21 W/m 9,0 km/h (2 Bft) 97,87 %
10.04.2018 18:16 19,8 C 20,0 C 18,9 C 59 % 0 lf 1001,5 hPa 0,0 l/m 0 min 0 min 21 W/m 9,0 km/h (2 Bft) 100,00 %
10.04.2018 18:18 19,8 C 20,0 C 18,9 C 59 % 0 lf 1001,5 hPa 0,0 l/m 0 min 0 min 21 W/m 9,0 km/h (2 Bft) 100,00 %
10.04.2018 18:20 19,7 C 20,0 C 18,9 C 60 % 0 lf 1001,5 hPa 0,0 l/m 0 min 0 min 21 W/m 6,8 km/h (2 Bft) 100,00 %
10.04.2018 18:22 19,7 C 20,0 C 18,9 C 59 % 0 lf 1001,5 hPa 0,0 l/m 0 min 0 min 21 W/m 11,3 km/h (2 Bft) 100,00 %
10.04.2018 18:24 19,7 C 20,0 C 18,9 C 59 % 0 lf 1001,5 hPa 0,0 l/m 0 min 0 min 21 W/m 6,8 km/h (2 Bft) 100,00 %
10.04.2018 18:26 19,7 C 20,0 C 18,9 C 60 % 0 lf 1001,5 hPa 0,0 l/m 0 min 0 min 21 W/m 11,3 km/h (2 Bft) 100,00 %
10.04.2018 18:28 19,7 C 20,0 C 18,3 C 60 % 0 lf 1001,5 hPa 0,0 l/m 0 min 0 min 19 W/m 11,3 km/h (2 Bft) 100,00 %
10.04.2018 18:30 19,6 C 20,0 C 18,3 C 60 % 0 lf 1001,5 hPa 0,0 l/m 0 min 0 min 19 W/m 11,3 km/h (2 Bft) 100,00 %
10.04.2018 18:32 19,6 C 20,0 C 18,3 C 60 % 0 lf 1001,5 hPa 0,0 l/m 0 min 0 min 18 W/m 9,0 km/h (2 Bft) 97,87 %
10.04.2018 18:34 19,6 C 20,0 C 18,3 C 60 % 0 lf 1001,4 hPa 0,0 l/m 0 min 0 min 18 W/m 11,3 km/h (2 Bft) 100,00 %
10.04.2018 18:38 19,6 C 19,4 C 18,3 C 61 % 0 lf 1001,4 hPa 0,0 l/m 0 min 0 min 16 W/m 11,3 km/h (2 Bft) 100,00 %
10.04.2018 18:40 19,5 C 19,4 C 18,3 C 61 % 0 lf 1001,3 hPa 0,0 l/m 0 min 0 min 16 W/m 11,3 km/h (2 Bft) 97,83 %
10.04.2018 18:42 19,5 C 19,4 C 17,8 C 61 % 0 lf 1001,3 hPa 0,0 l/m 0 min 0 min 14 W/m 11,3 km/h (2 Bft) 100,00 %
10.04.2018 18:44 19,4 C 19,4 C 17,8 C 61 % 0 lf 1001,4 hPa 0,0 l/m 0 min 0 min 15 W/m 11,3 km/h (2 Bft) 100,00 %
10.04.2018 18:46 19,4 C 19,4 C 17,8 C 61 % 0 lf 1001,3 hPa 0,0 l/m 0 min 0 min 16 W/m 11,3 km/h (2 Bft) 100,00 %
10.04.2018 18:48 19,4 C 19,4 C 17,8 C 61 % 0 lf 1001,3 hPa 0,0 l/m 0 min 0 min 16 W/m 11,3 km/h (2 Bft) 100,00 %
10.04.2018 18:50 19,4 C 19,4 C 17,8 C 62 % 0 lf 1001,3 hPa 0,0 l/m 0 min 0 min 16 W/m 11,3 km/h (2 Bft) 95,74 %
10.04.2018 18:52 19,3 C 19,4 C 17,8 C 62 % 0 lf 1001,3 hPa 0,0 l/m 0 min 0 min 16 W/m 13,5 km/h (3 Bft) 100,00 %
10.04.2018 18:54 19,3 C 18,9 C 17,8 C 62 % 0 lf 1001,3 hPa 0,0 l/m 0 min 0 min 14 W/m 15,8 km/h (3 Bft) 97,87 %
10.04.2018 18:56 19,3 C 18,9 C 17,8 C 62 % 0 lf 1001,3 hPa 0,0 l/m 0 min 0 min 14 W/m 13,5 km/h (3 Bft) 97,87 %
10.04.2018 18:58 19,3 C 18,9 C 17,2 C 63 % 0 lf 1001,3 hPa 0,0 l/m 0 min 0 min 12 W/m 9,0 km/h (2 Bft) 100,00 %
10.04.2018 19:00 19,3 C 18,9 C 17,2 C 63 % 0 lf 1001,2 hPa 0,0 l/m 0 min 0 min 12 W/m 11,3 km/h (2 Bft) 100,00 %
10.04.2018 19:02 19,3 C 18,9 C 17,2 C 62 % 0 lf 1001,2 hPa 0,0 l/m 0 min 0 min 12 W/m 11,3 km/h (2 Bft) 100,00 %
10.04.2018 19:04 19,2 C 18,9 C 17,2 C 63 % 0 lf 1001,2 hPa 0,0 l/m 0 min 0 min 12 W/m 9,0 km/h (2 Bft) 100,00 %
10.04.2018 19:08 19,2 C 18,9 C 17,2 C 63 % 0 lf 1001,3 hPa 0,0 l/m 0 min 0 min 11 W/m 11,3 km/h (2 Bft) 94,68 %
10.04.2018 19:10 19,2 C 18,3 C 17,2 C 63 % 0 lf 1001,3 hPa 0,0 l/m 0 min 0 min 9 W/m 11,3 km/h (2 Bft) 100,00 %
10.04.2018 19:12 19,1 C 18,3 C 16,7 C 63 % 0 lf 1001,3 hPa 0,0 l/m 0 min 0 min 9 W/m 6,8 km/h (2 Bft) 95,74 %
10.04.2018 19:14 19,1 C 18,3 C 16,7 C 64 % 0 lf 1001,3 hPa 0,0 l/m 0 min 0 min 9 W/m 9,0 km/h (2 Bft) 95,74 %
10.04.2018 19:16 19,1 C 18,3 C 16,7 C 64 % 0 lf 1001,3 hPa 0,0 l/m 0 min 0 min 7 W/m 9,0 km/h (2 Bft) 95,65 %
10.04.2018 19:18 19,1 C 18,3 C 16,7 C 64 % 0 lf 1001,3 hPa 0,0 l/m 0 min 0 min 7 W/m 6,8 km/h (2 Bft) 93,62 %
10.04.2018 19:20 19,0 C 18,3 C 16,1 C 64 % 0 lf 1001,3 hPa 0,0 l/m 0 min 0 min 7 W/m 6,8 km/h (2 Bft) 95,74 %
10.04.2018 19:22 19,0 C 17,8 C 16,1 C 64 % 0 lf 1001,3 hPa 0,0 l/m 0 min 0 min 5 W/m 6,8 km/h (2 Bft) 91,49 %
10.04.2018 19:24 18,9 C 17,8 C 16,1 C 64 % 0 lf 1001,3 hPa 0,0 l/m 0 min 0 min 5 W/m 11,3 km/h (2 Bft) 95,74 %
10.04.2018 19:26 18,9 C 17,8 C 16,1 C 64 % 0 lf 1001,3 hPa 0,0 l/m 0 min 0 min 5 W/m 9,0 km/h (2 Bft) 93,62 %
10.04.2018 19:28 18,9 C 17,8 C 16,1 C 64 % 0 lf 1001,4 hPa 0,0 l/m 0 min 0 min 5 W/m 9,0 km/h (2 Bft) 95,65 %
10.04.2018 19:30 18,8 C 17,8 C 15,6 C 64 % 0 lf 1001,3 hPa 0,0 l/m 0 min 0 min 5 W/m 6,8 km/h (2 Bft) 93,62 %
10.04.2018 19:32 18,8 C 17,8 C 15,6 C 64 % 0 lf 1001,3 hPa 0,0 l/m 0 min 0 min 1 W/m 6,8 km/h (2 Bft) 95,74 %
10.04.2018 19:34 18,8 C 17,8 C 15,6 C 64 % 0 lf 1001,4 hPa 0,0 l/m 0 min 0 min 0 W/m 9,0 km/h (2 Bft) 95,74 %
10.04.2018 19:38 18,7 C 17,2 C 15,6 C 65 % 0 lf 1001,4 hPa 0,0 l/m 0 min 0 min 0 W/m 9,0 km/h (2 Bft) 94,68 %
10.04.2018 19:40 18,6 C 17,2 C 15,6 C 65 % 0 lf 1001,4 hPa 0,0 l/m 0 min 0 min 0 W/m 9,0 km/h (2 Bft) 89,13 %
10.04.2018 19:42 18,6 C 17,2 C 15,6 C 65 % 0 lf 1001,4 hPa 0,0 l/m 0 min 0 min 0 W/m 9,0 km/h (2 Bft) 93,62 %
10.04.2018 19:44 18,6 C 17,2 C 15,0 C 65 % 2 lf 1001,5 hPa 0,0 l/m 0 min 2 min 0 W/m 9,0 km/h (2 Bft) 93,62 %
10.04.2018 19:46 18,6 C 17,2 C 14,4 C 65 % 5 lf 1001,5 hPa 0,0 l/m 0 min 2 min 0 W/m 6,8 km/h (2 Bft) 93,62 %
10.04.2018 19:48 18,5 C 16,7 C 13,9 C 66 % 14 lf 1001,5 hPa 0,0 l/m 0 min 2 min 0 W/m 9,0 km/h (2 Bft) 93,62 %
10.04.2018 19:50 18,4 C 16,7 C 13,9 C 66 % 9 lf 1001,6 hPa 0,0 l/m 0 min 2 min 0 W/m 6,8 km/h (2 Bft) 91,30 %
10.04.2018 19:52 18,4 C 16,7 C 13,3 C 66 % 3 lf 1001,6 hPa 0,0 l/m 0 min 0 min 0 W/m 9,0 km/h (2 Bft) 91,49 %
10.04.2018 19:54 18,4 C 16,7 C 13,3 C 67 % 6 lf 1001,5 hPa 0,0 l/m 0 min 2 min 0 W/m 6,8 km/h (2 Bft) 93,62 %
10.04.2018 19:56 18,4 C 16,7 C 13,3 C 68 % 4 lf 1001,6 hPa 0,0 l/m 0 min 2 min 0 W/m 9,0 km/h (2 Bft) 91,49 %
10.04.2018 19:58 18,3 C 16,7 C 13,3 C 68 % 15 lf 1001,6 hPa 0,0 l/m 0 min 2 min 0 W/m 6,8 km/h (2 Bft) 93,62 %
10.04.2018 20:00 18,3 C 16,7 C 13,3 C 68 % 15 lf 1001,6 hPa 0,0 l/m 0 min 2 min 0 W/m 6,8 km/h (2 Bft) 93,62 %
10.04.2018 20:02 18,2 C 16,1 C 13,3 C 68 % 15 lf 1001,7 hPa 0,0 l/m 0 min 2 min 0 W/m 9,0 km/h (2 Bft) 93,75 %
10.04.2018 20:04 18,2 C 15,6 C 12,8 C 69 % 15 lf 1001,7 hPa 0,0 l/m 0 min 2 min 0 W/m 4,5 km/h (1 Bft) 95,74 %
10.04.2018 20:08 18,1 C 15,0 C 12,8 C 69 % 15 lf 1001,8 hPa 0,0 l/m 0 min 4 min 0 W/m 4,5 km/h (1 Bft) 95,83 %
10.04.2018 20:10 18,1 C 15,0 C 12,8 C 69 % 15 lf 1002,0 hPa 0,0 l/m 0 min 2 min 0 W/m 6,8 km/h (2 Bft) 93,62 %
10.04.2018 20:12 18,0 C 14,4 C 12,8 C 70 % 15 lf 1002,0 hPa 0,0 l/m 0 min 2 min 0 W/m 9,0 km/h (2 Bft) 95,65 %
10.04.2018 20:14 18,0 C 13,9 C 12,8 C 71 % 15 lf 1002,0 hPa 0,0 l/m 0 min 2 min 0 W/m 4,5 km/h (1 Bft) 95,74 %
10.04.2018 20:16 17,9 C 13,9 C 12,8 C 71 % 15 lf 1002,0 hPa 0,0 l/m 0 min 2 min 0 W/m 4,5 km/h (1 Bft) 97,87 %
10.04.2018 20:18 17,9 C 13,9 C 12,8 C 72 % 15 lf 1002,0 hPa 0,0 l/m 0 min 2 min 0 W/m 4,5 km/h (1 Bft) 95,74 %
10.04.2018 20:20 17,9 C 13,9 C 12,8 C 74 % 15 lf 1002,1 hPa 0,0 l/m 0 min 2 min 0 W/m 4,5 km/h (1 Bft) 97,87 %
10.04.2018 20:22 17,8 C 13,3 C 12,8 C 74 % 15 lf 1002,1 hPa 0,2 l/m 0 min 2 min 0 W/m 2,3 km/h (1 Bft) 97,87 %
10.04.2018 20:24 17,8 C 13,9 C 12,8 C 74 % 15 lf 1002,0 hPa 0,0 l/m 0 min 2 min 0 W/m 0,0 km/h (0 Bft) 97,83 %
10.04.2018 20:26 17,8 C 13,3 C 12,8 C 74 % 15 lf 1002,1 hPa 0,2 l/m 0 min 2 min 0 W/m 2,3 km/h (1 Bft) 95,74 %
10.04.2018 20:28 17,7 C 13,3 C 12,8 C 74 % 15 lf 1002,2 hPa 0,0 l/m 0 min 2 min 0 W/m 2,3 km/h (1 Bft) 97,87 %
10.04.2018 20:30 17,7 C 13,3 C 12,8 C 75 % 15 lf 1002,2 hPa 0,0 l/m 0 min 2 min 0 W/m 4,5 km/h (1 Bft) 97,87 %
10.04.2018 20:32 17,6 C 13,3 C 12,2 C 75 % 15 lf 1002,2 hPa 0,2 l/m 0 min 2 min 0 W/m 9,0 km/h (2 Bft) 97,92 %
10.04.2018 20:34 17,6 C 13,3 C 12,8 C 75 % 15 lf 1002,1 hPa 0,0 l/m 0 min 2 min 0 W/m 9,0 km/h (2 Bft) 95,74 %
10.04.2018 20:38 17,4 C 13,3 C 12,2 C 76 % 15 lf 1002,1 hPa 0,2 l/m 0 min 4 min 0 W/m 9,0 km/h (2 Bft) 95,74 %
10.04.2018 20:40 17,3 C 13,3 C 12,2 C 77 % 15 lf 1002,1 hPa 0,2 l/m 0 min 2 min 0 W/m 2,3 km/h (1 Bft) 95,65 %
10.04.2018 20:42 17,2 C 13,3 C 12,8 C 77 % 15 lf 1002,1 hPa 0,0 l/m 0 min 2 min 0 W/m 4,5 km/h (1 Bft) 97,87 %
10.04.2018 20:44 17,2 C 13,3 C 12,8 C 78 % 15 lf 1002,1 hPa 0,2 l/m 0 min 2 min 0 W/m 6,8 km/h (2 Bft) 97,87 %
10.04.2018 20:46 17,1 C 13,3 C 12,8 C 78 % 15 lf 1002,2 hPa 0,0 l/m 0 min 2 min 0 W/m 6,8 km/h (2 Bft) 95,74 %
10.04.2018 20:48 17,0 C 13,3 C 12,2 C 79 % 15 lf 1002,3 hPa 0,2 l/m 0 min 2 min 0 W/m 9,0 km/h (2 Bft) 93,62 %
10.04.2018 20:50 16,9 C 13,3 C 12,2 C 80 % 15 lf 1002,3 hPa 0,0 l/m 0 min 2 min 0 W/m 6,8 km/h (2 Bft) 97,87 %
10.04.2018 20:52 16,8 C 13,3 C 12,2 C 80 % 15 lf 1002,5 hPa 0,2 l/m 0 min 2 min 0 W/m 9,0 km/h (2 Bft) 97,83 %
10.04.2018 20:54 16,7 C 12,8 C 12,2 C 80 % 15 lf 1002,5 hPa 0,0 l/m 0 min 2 min 0 W/m 9,0 km/h (2 Bft) 97,87 %
10.04.2018 20:56 16,6 C 12,8 C 12,2 C 81 % 15 lf 1002,6 hPa 0,0 l/m 0 min 2 min 0 W/m 9,0 km/h (2 Bft) 95,74 %
10.04.2018 20:58 16,5 C 12,8 C 12,2 C 81 % 15 lf 1002,7 hPa 0,2 l/m 0 min 2 min 0 W/m 9,0 km/h (2 Bft) 97,87 %
10.04.2018 21:00 16,4 C 12,8 C 12,2 C 82 % 15 lf 1002,8 hPa 0,0 l/m 0 min 2 min 0 W/m 9,0 km/h (2 Bft) 100,00 %
10.04.2018 21:02 16,3 C 12,8 C 12,2 C 82 % 15 lf 1002,9 hPa 0,2 l/m 0 min 2 min 0 W/m 6,8 km/h (2 Bft) 95,74 %
10.04.2018 21:04 16,2 C 12,8 C 12,2 C 83 % 15 lf 1002,8 hPa 0,0 l/m 0 min 2 min 0 W/m 15,8 km/h (3 Bft) 100,00 %
10.04.2018 21:08 15,8 C 12,8 C 12,2 C 84 % 15 lf 1002,8 hPa 0,4 l/m 0 min 4 min 0 W/m 13,5 km/h (3 Bft) 98,94 %
10.04.2018 21:10 15,7 C 12,8 C 12,2 C 84 % 15 lf 1002,8 hPa 0,4 l/m 0 min 2 min 0 W/m 15,8 km/h (3 Bft) 95,74 %
10.04.2018 21:12 15,6 C 12,8 C 11,7 C 85 % 15 lf 1002,8 hPa 0,2 l/m 0 min 2 min 0 W/m 13,5 km/h (3 Bft) 97,87 %
10.04.2018 21:14 15,4 C 12,8 C 11,7 C 85 % 15 lf 1002,8 hPa 0,2 l/m 0 min 2 min 0 W/m 15,8 km/h (3 Bft) 100,00 %
10.04.2018 21:16 15,3 C 12,8 C 11,7 C 86 % 15 lf 1002,9 hPa 0,4 l/m 0 min 2 min 0 W/m 15,8 km/h (3 Bft) 100,00 %
10.04.2018 21:18 15,2 C 12,8 C 11,7 C 86 % 15 lf 1002,9 hPa 0,4 l/m 0 min 2 min 0 W/m 18,0 km/h (3 Bft) 100,00 %
10.04.2018 21:20 15,1 C 12,2 C 11,7 C 86 % 15 lf 1003,0 hPa 0,2 l/m 0 min 2 min 0 W/m 24,8 km/h (4 Bft) 100,00 %
10.04.2018 21:22 15,0 C 12,2 C 11,7 C 87 % 15 lf 1003,0 hPa 0,4 l/m 0 min 2 min 0 W/m 20,3 km/h (4 Bft) 100,00 %
10.04.2018 21:24 14,9 C 12,2 C 11,7 C 87 % 15 lf 1003,1 hPa 0,6 l/m 0 min 2 min 0 W/m 22,5 km/h (4 Bft) 97,87 %
10.04.2018 21:26 14,7 C 12,2 C 11,7 C 87 % 15 lf 1003,2 hPa 0,6 l/m 0 min 2 min 0 W/m 22,5 km/h (4 Bft) 97,87 %
10.04.2018 21:28 14,6 C 12,2 C 11,7 C 87 % 15 lf 1003,2 hPa 0,2 l/m 0 min 2 min 0 W/m 27,0 km/h (4 Bft) 100,00 %
10.04.2018 21:30 14,5 C 12,2 C 11,7 C 88 % 15 lf 1003,2 hPa 0,4 l/m 0 min 2 min 0 W/m 20,3 km/h (4 Bft) 100,00 %
10.04.2018 21:32 14,4 C 12,2 C 11,7 C 88 % 15 lf 1003,2 hPa 0,4 l/m 0 min 2 min 0 W/m 22,5 km/h (4 Bft) 97,87 %
10.04.2018 21:34 14,3 C 12,2 C 11,7 C 88 % 15 lf 1003,1 hPa 0,4 l/m 0 min 2 min 0 W/m 31,5 km/h (5 Bft) 95,74 %
10.04.2018 21:38 14,2 C 12,2 C 11,1 C 89 % 15 lf 1003,0 hPa 0,4 l/m 0 min 4 min 0 W/m 24,8 km/h (4 Bft) 97,85 %
10.04.2018 21:40 14,1 C 12,2 C 11,1 C 89 % 15 lf 1002,8 hPa 0,8 l/m 0 min 2 min 0 W/m 31,5 km/h (5 Bft) 97,87 %
10.04.2018 21:42 13,9 C 11,7 C 11,1 C 89 % 15 lf 1002,6 hPa 0,2 l/m 0 min 2 min 0 W/m 31,5 km/h (5 Bft) 97,87 %
10.04.2018 21:44 13,8 C 11,7 C 11,1 C 89 % 15 lf 1002,7 hPa 0,4 l/m 0 min 2 min 0 W/m 27,0 km/h (4 Bft) 97,87 %
10.04.2018 21:46 13,8 C 11,7 C 11,1 C 90 % 15 lf 1002,9 hPa 0,2 l/m 0 min 2 min 0 W/m 27,0 km/h (4 Bft) 97,87 %
10.04.2018 21:48 13,7 C 11,7 C 11,1 C 90 % 15 lf 1003,0 hPa 0,2 l/m 0 min 2 min 0 W/m 24,8 km/h (4 Bft) 97,87 %
10.04.2018 21:50 13,6 C 11,7 C 11,1 C 90 % 15 lf 1002,9 hPa 0,2 l/m 0 min 2 min 0 W/m 22,5 km/h (4 Bft) 97,83 %
10.04.2018 21:52 13,5 C 11,7 C 11,1 C 90 % 15 lf 1002,9 hPa 0,2 l/m 0 min 2 min 0 W/m 27,0 km/h (4 Bft) 97,87 %
10.04.2018 21:54 13,4 C 11,7 C 10,6 C 90 % 15 lf 1002,9 hPa 0,4 l/m 0 min 2 min 0 W/m 22,5 km/h (4 Bft) 97,87 %
10.04.2018 21:56 13,3 C 11,7 C 10,6 C 90 % 15 lf 1003,0 hPa 0,2 l/m 0 min 2 min 0 W/m 24,8 km/h (4 Bft) 97,87 %
10.04.2018 21:58 13,2 C 11,7 C 10,6 C 90 % 15 lf 1003,2 hPa 0,2 l/m 0 min 2 min 0 W/m 20,3 km/h (4 Bft) 97,87 %
10.04.2018 22:00 13,2 C 11,7 C 11,1 C 91 % 15 lf 1003,4 hPa 0,4 l/m 0 min 2 min 0 W/m 15,8 km/h (3 Bft) 95,74 %
10.04.2018 22:02 13,2 C 11,7 C 11,1 C 91 % 15 lf 1003,5 hPa 0,6 l/m 0 min 2 min 0 W/m 15,8 km/h (3 Bft) 97,83 %
10.04.2018 22:04 13,2 C 11,7 C 11,1 C 91 % 15 lf 1003,5 hPa 0,4 l/m 0 min 2 min 0 W/m 27,0 km/h (4 Bft) 93,62 %
10.04.2018 22:08 13,1 C 11,7 C 11,1 C 91 % 15 lf 1003,5 hPa 0,8 l/m 0 min 4 min 0 W/m 22,5 km/h (4 Bft) 97,56 %
10.04.2018 22:10 13,0 C 11,7 C 11,1 C 92 % 15 lf 1003,6 hPa 0,2 l/m 0 min 2 min 0 W/m 9,0 km/h (2 Bft) 100,00 %
10.04.2018 22:12 13,0 C 11,7 C 11,1 C 92 % 15 lf 1003,6 hPa 0,2 l/m 0 min 2 min 0 W/m 11,3 km/h (2 Bft) 94,29 %
10.04.2018 22:14 13,0 C 11,7 C 11,1 C 92 % 15 lf 1003,7 hPa 0,2 l/m 0 min 2 min 0 W/m 15,8 km/h (3 Bft) 93,10 %
10.04.2018 22:16 13,0 C 11,7 C 11,1 C 92 % 15 lf 1003,8 hPa 0,2 l/m 0 min 2 min 0 W/m 15,8 km/h (3 Bft) 95,74 %
10.04.2018 22:18 12,9 C 11,7 C 11,1 C 92 % 15 lf 1003,8 hPa 0,4 l/m 0 min 2 min 0 W/m 20,3 km/h (4 Bft) 97,14 %
10.04.2018 22:20 12,9 C 11,7 C 11,1 C 93 % 15 lf 1003,8 hPa 0,4 l/m 0 min 2 min 0 W/m 33,8 km/h (5 Bft) 96,61 %
10.04.2018 22:22 12,9 C 11,7 C 11,1 C 93 % 15 lf 1003,9 hPa 0,2 l/m 0 min 2 min 0 W/m 27,0 km/h (4 Bft) 97,87 %
10.04.2018 22:24 12,9 C 11,7 C 11,1 C 93 % 15 lf 1004,0 hPa 0,2 l/m 0 min 2 min 0 W/m 13,5 km/h (3 Bft) 100,00 %
10.04.2018 22:26 12,8 C 11,7 C 11,1 C 93 % 15 lf 1004,0 hPa 0,2 l/m 0 min 2 min 0 W/m 13,5 km/h (3 Bft) 96,55 %
10.04.2018 22:28 12,8 C 11,7 C 11,1 C 93 % 15 lf 1004,0 hPa 0,2 l/m 0 min 2 min 0 W/m 11,3 km/h (2 Bft) 97,87 %
10.04.2018 22:30 12,8 C 11,7 C 11,1 C 93 % 15 lf 1004,0 hPa 0,4 l/m 0 min 2 min 0 W/m 9,0 km/h (2 Bft) 97,87 %
10.04.2018 22:32 12,8 C 11,7 C 11,1 C 93 % 15 lf 1004,0 hPa 0,4 l/m 0 min 2 min 0 W/m 9,0 km/h (2 Bft) 97,87 %
10.04.2018 22:34 12,8 C 11,7 C 11,1 C 93 % 15 lf 1004,1 hPa 0,2 l/m 0 min 2 min 0 W/m 9,0 km/h (2 Bft) 97,87 %
10.04.2018 22:38 12,8 C 11,7 C 11,1 C 94 % 15 lf 1004,1 hPa 0,4 l/m 0 min 4 min 0 W/m 11,3 km/h (2 Bft) 97,85 %
10.04.2018 22:40 12,8 C 11,7 C 11,1 C 94 % 15 lf 1004,0 hPa 0,4 l/m 0 min 2 min 0 W/m 11,3 km/h (2 Bft) 95,74 %
10.04.2018 22:42 12,8 C 11,7 C 11,1 C 94 % 15 lf 1003,9 hPa 0,4 l/m 0 min 2 min 0 W/m 11,3 km/h (2 Bft) 93,62 %
10.04.2018 22:44 12,7 C 11,7 C 11,1 C 94 % 15 lf 1003,7 hPa 0,4 l/m 0 min 2 min 0 W/m 20,3 km/h (4 Bft) 94,29 %
10.04.2018 22:46 12,7 C 11,7 C 11,1 C 94 % 15 lf 1003,6 hPa 0,4 l/m 0 min 2 min 0 W/m 18,0 km/h (3 Bft) 89,83 %
10.04.2018 22:48 12,7 C 11,7 C 11,1 C 94 % 15 lf 1003,5 hPa 0,2 l/m 0 min 2 min 0 W/m 29,3 km/h (5 Bft) 91,49 %
10.04.2018 22:50 12,7 C 11,7 C 11,1 C 94 % 15 lf 1003,0 hPa 0,4 l/m 0 min 2 min 0 W/m 27,0 km/h (4 Bft) 95,65 %
10.04.2018 22:52 12,7 C 11,7 C 11,1 C 94 % 15 lf 1002,9 hPa 0,2 l/m 0 min 2 min 0 W/m 38,3 km/h (5 Bft) 97,87 %
10.04.2018 22:54 12,7 C 11,7 C 11,1 C 94 % 15 lf 1002,9 hPa 0,2 l/m 0 min 2 min 0 W/m 31,5 km/h (5 Bft) 95,74 %
10.04.2018 22:56 12,6 C 11,7 C 11,1 C 94 % 15 lf 1002,7 hPa 0,0 l/m 0 min 2 min 0 W/m 40,6 km/h (6 Bft) 95,74 %
10.04.2018 22:58 12,6 C 11,7 C 11,1 C 95 % 15 lf 1002,5 hPa 0,0 l/m 0 min 2 min 0 W/m 33,8 km/h (5 Bft) 97,87 %
10.04.2018 23:00 12,6 C 11,7 C 10,6 C 95 % 15 lf 1002,5 hPa 0,0 l/m 0 min 2 min 0 W/m 31,5 km/h (5 Bft) 97,83 %
10.04.2018 23:02 12,6 C 11,7 C 10,6 C 95 % 15 lf 1002,5 hPa 0,2 l/m 0 min 2 min 0 W/m 31,5 km/h (5 Bft) 95,74 %
10.04.2018 23:04 12,5 C 11,7 C 10,6 C 95 % 15 lf 1002,6 hPa 0,0 l/m 0 min 2 min 0 W/m 36,0 km/h (5 Bft) 93,62 %
10.04.2018 23:08 12,4 C 11,7 C 10,6 C 95 % 15 lf 1002,6 hPa 0,0 l/m 0 min 4 min 0 W/m 33,8 km/h (5 Bft) 95,74 %
10.04.2018 23:10 12,4 C 11,7 C 10,6 C 95 % 15 lf 1002,4 hPa 0,0 l/m 0 min 2 min 0 W/m 33,8 km/h (5 Bft) 95,74 %
10.04.2018 23:12 12,4 C 11,7 C 10,6 C 95 % 15 lf 1002,5 hPa 0,2 l/m 0 min 2 min 0 W/m 31,5 km/h (5 Bft) 97,87 %
10.04.2018 23:14 12,4 C 11,7 C 10,6 C 95 % 15 lf 1002,7 hPa 0,0 l/m 0 min 2 min 0 W/m 27,0 km/h (4 Bft) 94,29 %
10.04.2018 23:16 12,3 C 11,7 C 10,6 C 95 % 15 lf 1002,8 hPa 0,0 l/m 0 min 2 min 0 W/m 22,5 km/h (4 Bft) 95,65 %
10.04.2018 23:18 12,3 C 11,7 C 10,6 C 95 % 15 lf 1002,9 hPa 0,2 l/m 0 min 2 min 0 W/m 20,3 km/h (4 Bft) 94,92 %
10.04.2018 23:20 12,3 C 11,7 C 10,6 C 96 % 15 lf 1003,0 hPa 0,0 l/m 0 min 2 min 0 W/m 18,0 km/h (3 Bft) 95,74 %
10.04.2018 23:22 12,3 C 11,1 C 10,6 C 95 % 15 lf 1003,1 hPa 0,0 l/m 0 min 2 min 0 W/m 20,3 km/h (4 Bft) 93,62 %
10.04.2018 23:24 12,3 C 11,1 C 10,6 C 95 % 15 lf 1003,1 hPa 0,0 l/m 0 min 2 min 0 W/m 20,3 km/h (4 Bft) 94,29 %
10.04.2018 23:26 12,3 C 11,1 C 10,6 C 96 % 15 lf 1003,3 hPa 0,0 l/m 0 min 2 min 0 W/m 20,3 km/h (4 Bft) 93,10 %
10.04.2018 23:28 12,3 C 11,1 C 10,6 C 96 % 15 lf 1003,7 hPa 0,2 l/m 0 min 2 min 0 W/m 20,3 km/h (4 Bft) 95,74 %
10.04.2018 23:30 12,2 C 11,1 C 10,6 C 96 % 15 lf 1003,8 hPa 0,0 l/m 0 min 2 min 0 W/m 22,5 km/h (4 Bft) 93,62 %
10.04.2018 23:32 12,2 C 11,1 C 10,6 C 96 % 15 lf 1003,8 hPa 0,0 l/m 0 min 2 min 0 W/m 18,0 km/h (3 Bft) 93,62 %
10.04.2018 23:34 12,2 C 11,1 C 10,6 C 96 % 15 lf 1003,8 hPa 0,0 l/m 0 min 2 min 0 W/m 15,8 km/h (3 Bft) 93,62 %
10.04.2018 23:38 12,2 C 11,1 C 10,6 C 96 % 15 lf 1003,7 hPa 0,0 l/m 0 min 4 min 0 W/m 13,5 km/h (3 Bft) 90,24 %
10.04.2018 23:40 12,2 C 11,1 C 10,6 C 96 % 15 lf 1003,7 hPa 0,0 l/m 0 min 2 min 0 W/m 18,0 km/h (3 Bft) 93,10 %
10.04.2018 23:42 12,2 C 11,1 C 10,6 C 96 % 15 lf 1003,7 hPa 0,0 l/m 0 min 2 min 0 W/m 18,0 km/h (3 Bft) 87,23 %
10.04.2018 23:44 12,1 C 11,1 C 10,6 C 96 % 15 lf 1003,7 hPa 0,0 l/m 0 min 2 min 0 W/m 13,5 km/h (3 Bft) 94,29 %
10.04.2018 23:46 12,1 C 11,1 C 10,6 C 96 % 15 lf 1003,5 hPa 0,0 l/m 0 min 2 min 0 W/m 20,3 km/h (4 Bft) 93,22 %
10.04.2018 23:48 12,1 C 11,1 C 10,6 C 96 % 15 lf 1003,7 hPa 0,2 l/m 0 min 2 min 0 W/m 9,0 km/h (2 Bft) 95,65 %
10.04.2018 23:50 12,1 C 11,1 C 10,6 C 96 % 15 lf 1003,9 hPa 0,0 l/m 0 min 2 min 0 W/m 15,8 km/h (3 Bft) 95,74 %
10.04.2018 23:52 12,0 C 11,1 C 10,6 C 96 % 15 lf 1003,9 hPa 0,0 l/m 0 min 2 min 0 W/m 11,3 km/h (2 Bft) 93,62 %
10.04.2018 23:54 12,0 C 11,1 C 10,6 C 96 % 15 lf 1004,0 hPa 0,0 l/m 0 min 2 min 0 W/m 13,5 km/h (3 Bft) 95,74 %
10.04.2018 23:56 12,0 C 11,1 C 10,6 C 96 % 15 lf 1004,0 hPa 0,0 l/m 0 min 2 min 0 W/m 15,8 km/h (3 Bft) 95,74 %
10.04.2018 23:58 11,9 C 11,1 C 10,6 C 96 % 15 lf 1003,9 hPa 0,2 l/m 0 min 2 min 0 W/m 15,8 km/h (3 Bft) 97,87 %
_ Min-Zeit 06:22 04:44 04:40 16:28 00:00 00:00 - - - - 05:52 00:02
Minimum _ 10,7 C 10,0 C 7,2 C 57 % 0 lf 999,8 hPa - - - - 0,0 km/h (0 Bft) 11,11 %
_ Max-Zeit 17:32 16:12 12:52 23:20 19:58 22:34 21:40 00:00 16:38 13:26 22:56 01:24
Maximum _ 20,5 C 26,7 C 22,2 C 96 % 15 lf 1004,1 hPa 0,8 l/m 0 min 4 min 109 W/m 40,6 km/h
W-SW (6 Bft)
100,00 %
Durchschnitt _ 15,3 C 15,7 C 14,0 C 78 % 3 lf 1001,8 hPa #20,4 l/m #0 min. #4:26 h 45 W/m 11,6 km/h (2 Bft) 96,13 %
© 2018 W. Hausmann